Time,TemperatureF,DewpointF,PressureIn,WindDirection,WindDirectionDegrees,WindSpeedMPH,WindSpeedGustMPH,Humidity,HourlyPrecipIn,Conditions,Clouds,dailyrainin,SoftwareType,DateUTC
2013-11-05 00:01:00,76.6,66.9,30.02,NW,311,4.0,5.0,72,0.00,,,0.03,Wunderground v.1.15,2013-11-05 05:01:00,
2013-11-05 00:02:00,76.6,66.9,30.03,WNW,302,4.0,5.0,72,0.00,,,0.03,Wunderground v.1.15,2013-11-05 05:02:00,
2013-11-05 00:03:00,76.7,67.0,30.02,South,189,4.0,5.0,72,0.00,,,0.03,Wunderground v.1.15,2013-11-05 05:03:00,
2013-11-05 00:04:00,76.7,67.0,30.02,SSW,205,4.0,5.0,72,0.00,,,0.03,Wunderground v.1.15,2013-11-05 05:04:00,
2013-11-05 00:05:00,76.7,67.0,30.02,East,87,4.0,5.0,72,0.00,,,0.03,Wunderground v.1.15,2013-11-05 05:05:00,
2013-11-05 00:06:00,76.7,67.0,30.02,North,350,3.0,6.0,72,0.00,,,0.03,Wunderground v.1.15,2013-11-05 05:06:00,
2013-11-05 00:08:00,76.7,67.0,30.02,West,264,3.0,6.0,72,0.00,,,0.03,Wunderground v.1.15,2013-11-05 05:08:00,
2013-11-05 00:09:00,76.7,67.0,30.03,WNW,282,3.0,6.0,72,0.00,,,0.03,Wunderground v.1.15,2013-11-05 05:09:00,
2013-11-05 00:14:00,76.9,67.2,30.02,NW,311,4.0,8.0,72,0.00,,,0.03,Wunderground v.1.15,2013-11-05 05:14:00,
2013-11-05 00:15:00,76.9,67.2,30.02,WNW,297,4.0,9.0,72,0.00,,,0.03,Wunderground v.1.15,2013-11-05 05:15:00,
2013-11-05 00:16:00,76.9,67.6,30.02,West,267,4.0,9.0,73,0.00,,,0.00,Wunderground v.1.15,2013-11-05 05:16:00,
2013-11-05 00:17:00,76.9,67.6,30.02,WNW,283,4.0,9.0,73,0.00,,,0.00,Wunderground v.1.15,2013-11-05 05:17:00,
2013-11-05 00:20:00,77.0,67.7,30.03,NW,308,5.0,6.0,73,0.00,,,0.00,Wunderground v.1.15,2013-11-05 05:20:00,
2013-11-05 00:21:00,77.0,67.7,30.02,West,280,5.0,6.0,73,0.00,,,0.00,Wunderground v.1.15,2013-11-05 05:21:00,
2013-11-05 00:22:00,77.0,67.7,30.03,SSE,153,5.0,6.0,73,0.00,,,0.00,Wunderground v.1.15,2013-11-05 05:22:00,
2013-11-05 00:23:00,77.0,67.7,30.02,NW,324,4.0,6.0,73,0.00,,,0.00,Wunderground v.1.15,2013-11-05 05:23:00,
2013-11-05 00:27:00,76.9,67.6,30.02,West,278,4.0,6.0,73,0.00,,,0.00,Wunderground v.1.15,2013-11-05 05:27:00,
2013-11-05 00:28:00,76.9,67.6,30.02,NW,309,4.0,6.0,73,0.00,,,0.00,Wunderground v.1.15,2013-11-05 05:28:00,
2013-11-05 00:29:00,76.9,67.6,30.02,NW,316,4.0,9.0,73,0.00,,,0.00,Wunderground v.1.15,2013-11-05 05:29:00,
2013-11-05 00:30:00,76.8,67.9,30.02,NNW,342,4.0,4.0,74,0.00,,,0.00,Wunderground v.1.15,2013-11-05 05:30:00,
2013-11-05 00:31:00,76.8,67.9,30.02,WSW,257,3.0,5.0,74,0.00,,,0.00,Wunderground v.1.15,2013-11-05 05:31:00,
2013-11-05 00:34:00,76.8,67.5,30.02,NW,309,4.0,16.0,73,0.00,,,0.00,Wunderground v.1.15,2013-11-05 05:34:00,
2013-11-05 00:35:00,76.8,67.5,30.02,SW,230,4.0,16.0,73,0.00,,,0.00,Wunderground v.1.15,2013-11-05 05:35:00,
2013-11-05 00:36:00,76.8,67.5,30.02,WNW,288,4.0,16.0,73,0.00,,,0.00,Wunderground v.1.15,2013-11-05 05:36:00,
2013-11-05 00:37:00,76.8,67.5,30.02,South,188,4.0,16.0,73,0.00,,,0.00,Wunderground v.1.15,2013-11-05 05:37:00,
2013-11-05 00:39:00,76.9,67.6,30.02,WSW,254,4.0,16.0,73,0.00,,,0.00,Wunderground v.1.15,2013-11-05 05:39:00,
2013-11-05 00:40:00,76.8,67.5,30.02,NW,307,4.0,4.0,73,0.00,,,0.00,Wunderground v.1.15,2013-11-05 05:40:00,
2013-11-05 00:42:00,76.9,67.6,30.02,West,278,4.0,16.0,73,0.00,,,0.00,Wunderground v.1.15,2013-11-05 05:42:00,
2013-11-05 00:44:00,77.0,67.3,30.02,NW,308,5.0,16.0,72,0.00,,,0.00,Wunderground v.1.15,2013-11-05 05:44:00,
2013-11-05 00:47:00,76.9,67.2,30.02,WNW,285,5.0,16.0,72,0.00,,,0.00,Wunderground v.1.15,2013-11-05 05:47:00,
2013-11-05 00:49:00,76.8,67.1,30.02,West,266,5.0,16.0,72,0.00,,,0.00,Wunderground v.1.15,2013-11-05 05:49:00,
2013-11-05 00:50:00,76.8,67.1,30.02,SW,221,5.0,5.0,72,0.00,,,0.00,Wunderground v.1.15,2013-11-05 05:50:00,
2013-11-05 00:55:00,76.6,66.9,30.02,WNW,300,3.0,16.0,72,0.00,,,0.00,Wunderground v.1.15,2013-11-05 05:55:00,
2013-11-05 00:56:00,76.6,66.9,30.02,West,273,3.0,16.0,72,0.00,,,0.00,Wunderground v.1.15,2013-11-05 05:56:00,
2013-11-05 00:58:00,76.5,66.4,30.02,East,87,3.0,16.0,71,0.00,,,0.00,Wunderground v.1.15,2013-11-05 05:58:00,
2013-11-05 01:00:00,76.5,66.4,30.02,WNW,300,2.0,2.0,71,0.00,,,0.00,Wunderground v.1.15,2013-11-05 06:00:00,
2013-11-05 01:02:00,76.6,66.5,30.02,NNW,330,2.0,4.0,71,0.00,,,0.00,Wunderground v.1.15,2013-11-05 06:02:00,
2013-11-05 01:03:00,76.6,66.5,30.02,West,278,2.0,4.0,71,0.00,,,0.00,Wunderground v.1.15,2013-11-05 06:03:00,
2013-11-05 01:05:00,76.6,66.5,30.02,WNW,285,2.0,4.0,71,0.00,,,0.00,Wunderground v.1.15,2013-11-05 06:05:00,
2013-11-05 01:07:00,76.7,66.6,30.02,WSW,258,2.0,6.0,71,0.00,,,0.00,Wunderground v.1.15,2013-11-05 06:07:00,
2013-11-05 01:08:00,76.7,66.6,30.02,SSW,200,2.0,6.0,71,0.00,,,0.00,Wunderground v.1.15,2013-11-05 06:08:00,
2013-11-05 01:09:00,76.7,66.2,30.02,NW,326,2.0,7.0,70,0.00,,,0.00,Wunderground v.1.15,2013-11-05 06:09:00,
2013-11-05 01:11:00,76.8,65.9,30.02,West,275,3.0,3.0,69,0.00,,,0.00,Wunderground v.1.15,2013-11-05 06:11:00,
2013-11-05 01:13:00,76.9,65.5,30.02,WNW,297,3.0,13.0,68,0.00,,,0.00,Wunderground v.1.15,2013-11-05 06:13:00,
2013-11-05 01:14:00,77.0,65.6,30.02,WNW,286,4.0,13.0,68,0.00,,,0.00,Wunderground v.1.15,2013-11-05 06:14:00,
2013-11-05 01:15:00,77.0,65.6,30.02,WNW,295,4.0,13.0,68,0.00,,,0.00,Wunderground v.1.15,2013-11-05 06:15:00,
2013-11-05 01:19:00,77.1,65.7,30.02,West,262,4.0,13.0,68,0.00,,,0.00,Wunderground v.1.15,2013-11-05 06:19:00,
2013-11-05 01:21:00,77.1,65.7,30.02,NNW,335,4.0,5.0,68,0.00,,,0.00,Wunderground v.1.15,2013-11-05 06:21:00,
2013-11-05 01:23:00,77.1,65.7,30.02,WNW,297,4.0,7.0,68,0.00,,,0.00,Wunderground v.1.15,2013-11-05 06:23:00,
2013-11-05 01:24:00,77.0,66.0,30.02,NW,316,4.0,7.0,69,0.00,,,0.00,Wunderground v.1.15,2013-11-05 06:24:00,
2013-11-05 01:25:00,76.9,66.0,30.02,NW,323,4.0,7.0,69,0.00,,,0.00,Wunderground v.1.15,2013-11-05 06:25:00,
2013-11-05 01:27:00,76.7,66.6,30.02,WNW,289,4.0,9.0,71,0.00,,,0.00,Wunderground v.1.15,2013-11-05 06:27:00,
2013-11-05 01:28:00,76.6,66.1,30.02,SSE,166,4.0,9.0,70,0.00,,,0.00,Wunderground v.1.15,2013-11-05 06:28:00,
2013-11-05 01:33:00,76.4,65.9,30.01,WNW,288,3.0,16.0,70,0.00,,,0.00,Wunderground v.1.15,2013-11-05 06:33:00,
2013-11-05 01:34:00,76.5,66.0,30.01,SW,229,3.0,16.0,70,0.00,,,0.00,Wunderground v.1.15,2013-11-05 06:34:00,
2013-11-05 01:35:00,76.5,66.0,30.01,SSW,213,3.0,16.0,70,0.00,,,0.00,Wunderground v.1.15,2013-11-05 06:35:00,
2013-11-05 01:37:00,76.6,65.7,30.01,WNW,289,3.0,16.0,69,0.00,,,0.00,Wunderground v.1.15,2013-11-05 06:37:00,
2013-11-05 01:39:00,76.6,65.7,30.01,WNW,284,3.0,16.0,69,0.00,,,0.00,Wunderground v.1.15,2013-11-05 06:39:00,
2013-11-05 01:42:00,76.8,65.4,30.01,WNW,302,4.0,16.0,68,0.00,,,0.00,Wunderground v.1.15,2013-11-05 06:42:00,
2013-11-05 01:43:00,76.8,65.4,30.01,West,270,4.0,16.0,68,0.00,,,0.00,Wunderground v.1.15,2013-11-05 06:43:00,
2013-11-05 01:46:00,76.9,65.5,30.01,South,182,4.0,16.0,68,0.00,,,0.00,Wunderground v.1.15,2013-11-05 06:46:00,
2013-11-05 01:48:00,77.0,65.6,30.01,NW,304,4.0,16.0,68,0.00,,,0.00,Wunderground v.1.15,2013-11-05 06:48:00,
2013-11-05 01:49:00,77.0,65.6,30.01,WNW,288,4.0,16.0,68,0.00,,,0.00,Wunderground v.1.15,2013-11-05 06:49:00,
2013-11-05 01:50:00,77.0,65.6,30.01,WSW,250,4.0,4.0,68,0.00,,,0.00,Wunderground v.1.15,2013-11-05 06:50:00,
2013-11-05 01:53:00,77.0,65.6,30.01,South,169,4.0,16.0,68,0.00,,,0.00,Wunderground v.1.15,2013-11-05 06:53:00,
2013-11-05 01:55:00,77.0,65.6,30.01,WNW,283,4.0,16.0,68,0.00,,,0.00,Wunderground v.1.15,2013-11-05 06:55:00,
2013-11-05 01:57:00,77.1,65.7,30.01,West,281,4.0,16.0,68,0.00,,,0.00,Wunderground v.1.15,2013-11-05 06:57:00,
2013-11-05 01:58:00,77.1,65.7,30.01,West,281,4.0,16.0,68,0.00,,,0.00,Wunderground v.1.15,2013-11-05 06:58:00,
2013-11-05 02:00:00,77.1,65.7,30.00,WNW,286,4.0,4.0,68,0.00,,,0.00,Wunderground v.1.15,2013-11-05 07:00:00,
2013-11-05 02:01:00,77.1,65.7,30.01,NW,314,4.0,6.0,68,0.00,,,0.00,Wunderground v.1.15,2013-11-05 07:01:00,
2013-11-05 02:02:00,77.1,65.7,30.01,SE,124,4.0,6.0,68,0.00,,,0.00,Wunderground v.1.15,2013-11-05 07:02:00,
2013-11-05 02:04:00,77.1,65.7,30.01,West,274,4.0,6.0,68,0.00,,,0.00,Wunderground v.1.15,2013-11-05 07:04:00,
2013-11-05 02:05:00,77.2,65.8,30.01,West,275,4.0,6.0,68,0.00,,,0.00,Wunderground v.1.15,2013-11-05 07:05:00,
2013-11-05 02:06:00,77.2,65.8,30.01,West,280,4.0,10.0,68,0.00,,,0.00,Wunderground v.1.15,2013-11-05 07:06:00,
2013-11-05 02:09:00,77.2,65.8,30.01,West,271,4.0,10.0,68,0.00,,,0.00,Wunderground v.1.15,2013-11-05 07:09:00,
2013-11-05 02:11:00,77.3,65.9,30.01,WSW,256,5.0,5.0,68,0.00,,,0.00,Wunderground v.1.15,2013-11-05 07:11:00,
2013-11-05 02:12:00,77.3,65.9,30.01,WNW,289,5.0,5.0,68,0.00,,,0.00,Wunderground v.1.15,2013-11-05 07:12:00,
2013-11-05 02:14:00,77.3,66.3,30.01,NW,317,5.0,5.0,69,0.00,,,0.00,Wunderground v.1.15,2013-11-05 07:14:00,
2013-11-05 02:16:00,77.3,66.3,30.01,West,278,4.0,5.0,69,0.00,,,0.00,Wunderground v.1.15,2013-11-05 07:16:00,
2013-11-05 02:18:00,77.2,66.2,30.00,SSW,203,4.0,5.0,69,0.00,,,0.00,Wunderground v.1.15,2013-11-05 07:18:00,
2013-11-05 02:20:00,77.2,66.2,30.01,NNW,331,3.0,3.0,69,0.00,,,0.00,Wunderground v.1.15,2013-11-05 07:20:00,
2013-11-05 02:22:00,77.2,65.8,30.00,NW,318,3.0,3.0,68,0.00,,,0.00,Wunderground v.1.15,2013-11-05 07:22:00,
2013-11-05 02:23:00,77.2,65.8,30.00,West,269,3.0,4.0,68,0.00,,,0.00,Wunderground v.1.15,2013-11-05 07:23:00,
2013-11-05 02:24:00,77.2,65.8,30.00,SE,142,3.0,4.0,68,0.00,,,0.00,Wunderground v.1.15,2013-11-05 07:24:00,
2013-11-05 02:28:00,77.2,65.8,30.00,NW,304,3.0,6.0,68,0.00,,,0.00,Wunderground v.1.15,2013-11-05 07:28:00,
2013-11-05 02:29:00,77.2,65.4,30.00,SW,231,3.0,6.0,67,0.00,,,0.00,Wunderground v.1.15,2013-11-05 07:29:00,
2013-11-05 02:31:00,77.2,65.4,30.00,WNW,288,4.0,12.0,67,0.00,,,0.00,Wunderground v.1.15,2013-11-05 07:31:00,
2013-11-05 02:35:00,77.2,65.4,30.00,WSW,241,4.0,12.0,67,0.00,,,0.00,Wunderground v.1.15,2013-11-05 07:35:00,
2013-11-05 02:37:00,77.2,65.4,30.00,WSW,248,4.0,12.0,67,0.00,,,0.00,Wunderground v.1.15,2013-11-05 07:37:00,
2013-11-05 02:38:00,77.2,65.4,30.00,WNW,302,4.0,12.0,67,0.00,,,0.00,Wunderground v.1.15,2013-11-05 07:38:00,
2013-11-05 02:39:00,77.2,65.4,30.00,NW,309,4.0,12.0,67,0.00,,,0.00,Wunderground v.1.15,2013-11-05 07:39:00,
2013-11-05 02:40:00,77.2,65.4,30.00,NW,319,4.0,4.0,67,0.00,,,0.00,Wunderground v.1.15,2013-11-05 07:40:00,
2013-11-05 02:43:00,77.2,65.8,30.00,WNW,286,3.0,12.0,68,0.00,,,0.00,Wunderground v.1.15,2013-11-05 07:43:00,
2013-11-05 02:46:00,77.2,66.2,30.00,NW,309,3.0,12.0,69,0.00,,,0.00,Wunderground v.1.15,2013-11-05 07:46:00,
2013-11-05 02:47:00,77.2,66.2,30.00,West,271,3.0,12.0,69,0.00,,,0.00,Wunderground v.1.15,2013-11-05 07:47:00,
2013-11-05 02:51:00,77.1,66.1,30.00,WNW,298,3.0,12.0,69,0.00,,,0.00,Wunderground v.1.15,2013-11-05 07:51:00,
2013-11-05 02:52:00,77.1,66.1,30.00,WNW,291,3.0,12.0,69,0.00,,,0.00,Wunderground v.1.15,2013-11-05 07:52:00,
2013-11-05 02:56:00,77.0,66.0,30.00,NW,306,3.0,12.0,69,0.00,,,0.00,Wunderground v.1.15,2013-11-05 07:56:00,
2013-11-05 02:57:00,77.0,66.0,30.00,West,275,3.0,12.0,69,0.00,,,0.00,Wunderground v.1.15,2013-11-05 07:57:00,
2013-11-05 02:58:00,77.0,66.0,30.00,NNW,329,3.0,12.0,69,0.00,,,0.00,Wunderground v.1.15,2013-11-05 07:58:00,
2013-11-05 02:59:00,77.1,66.1,30.00,WSW,250,3.0,12.0,69,0.00,,,0.00,Wunderground v.1.15,2013-11-05 07:59:00,
2013-11-05 03:00:00,77.1,65.7,29.99,SW,229,3.0,3.0,68,0.00,,,0.00,Wunderground v.1.15,2013-11-05 08:00:00,
2013-11-05 03:03:00,77.1,65.7,30.00,NW,311,3.0,4.0,68,0.00,,,0.00,Wunderground v.1.15,2013-11-05 08:03:00,
2013-11-05 03:05:00,77.1,65.7,30.00,WSW,245,3.0,4.0,68,0.00,,,0.00,Wunderground v.1.15,2013-11-05 08:05:00,
2013-11-05 03:06:00,77.0,65.6,30.00,NW,310,3.0,4.0,68,0.00,,,0.00,Wunderground v.1.15,2013-11-05 08:06:00,
2013-11-05 03:07:00,77.0,65.6,30.00,North,356,3.0,5.0,68,0.00,,,0.00,Wunderground v.1.15,2013-11-05 08:07:00,
2013-11-05 03:08:00,77.0,65.6,30.00,South,190,3.0,5.0,68,0.00,,,0.00,Wunderground v.1.15,2013-11-05 08:08:00,
2013-11-05 03:09:00,77.0,65.6,30.00,NW,326,3.0,5.0,68,0.00,,,0.00,Wunderground v.1.15,2013-11-05 08:09:00,
2013-11-05 03:10:00,77.0,65.6,30.00,West,271,3.0,8.0,68,0.00,,,0.00,Wunderground v.1.15,2013-11-05 08:10:00,
2013-11-05 03:13:00,77.0,65.6,30.00,WNW,283,3.0,8.0,68,0.00,,,0.00,Wunderground v.1.15,2013-11-05 08:13:00,
2013-11-05 03:15:00,76.9,65.5,30.00,West,271,2.0,8.0,68,0.00,,,0.00,Wunderground v.1.15,2013-11-05 08:15:00,
2013-11-05 03:16:00,77.0,65.2,30.00,WNW,288,3.0,8.0,67,0.00,,,0.00,Wunderground v.1.15,2013-11-05 08:16:00,
2013-11-05 03:19:00,77.0,65.6,30.00,West,275,3.0,8.0,68,0.00,,,0.00,Wunderground v.1.15,2013-11-05 08:19:00,
2013-11-05 03:21:00,77.1,65.7,30.00,WNW,289,3.0,5.0,68,0.00,,,0.00,Wunderground v.1.15,2013-11-05 08:21:00,
2013-11-05 03:22:00,77.1,66.1,30.00,West,281,3.0,5.0,69,0.00,,,0.00,Wunderground v.1.15,2013-11-05 08:22:00,
2013-11-05 03:25:00,77.1,66.1,30.00,WNW,288,3.0,5.0,69,0.00,,,0.00,Wunderground v.1.15,2013-11-05 08:25:00,
2013-11-05 03:29:00,77.1,66.6,30.00,West,271,3.0,8.0,70,0.00,,,0.00,Wunderground v.1.15,2013-11-05 08:29:00,
2013-11-05 03:30:00,77.1,66.6,30.00,West,281,3.0,3.0,70,0.00,,,0.00,Wunderground v.1.15,2013-11-05 08:30:00,
2013-11-05 03:31:00,77.1,66.6,30.00,SSW,213,3.0,4.0,70,0.00,,,0.00,Wunderground v.1.15,2013-11-05 08:31:00,
2013-11-05 03:32:00,77.1,66.6,30.00,WNW,302,3.0,5.0,70,0.00,,,0.00,Wunderground v.1.15,2013-11-05 08:32:00,
2013-11-05 03:36:00,77.2,66.7,30.00,South,183,4.0,11.0,70,0.00,,,0.00,Wunderground v.1.15,2013-11-05 08:36:00,
2013-11-05 03:38:00,77.2,66.2,30.00,WNW,297,5.0,11.0,69,0.00,,,0.00,Wunderground v.1.15,2013-11-05 08:38:00,
2013-11-05 03:39:00,77.2,66.2,30.00,WNW,287,5.0,11.0,69,0.00,,,0.00,Wunderground v.1.15,2013-11-05 08:39:00,
2013-11-05 03:42:00,77.3,65.9,30.00,West,269,5.0,11.0,68,0.00,,,0.00,Wunderground v.1.15,2013-11-05 08:42:00,
2013-11-05 03:43:00,77.3,65.9,30.00,NW,308,5.0,11.0,68,0.00,,,0.00,Wunderground v.1.15,2013-11-05 08:43:00,
2013-11-05 03:44:00,77.3,66.3,30.00,NW,313,5.0,11.0,69,0.00,,,0.00,Wunderground v.1.15,2013-11-05 08:44:00,
2013-11-05 03:45:00,77.3,66.3,30.00,South,169,4.0,11.0,69,0.00,,,0.00,Wunderground v.1.15,2013-11-05 08:45:00,
2013-11-05 03:47:00,77.3,66.3,30.00,WSW,250,4.0,11.0,69,0.00,,,0.00,Wunderground v.1.15,2013-11-05 08:47:00,
2013-11-05 03:48:00,77.3,66.3,30.00,WNW,282,4.0,11.0,69,0.00,,,0.00,Wunderground v.1.15,2013-11-05 08:48:00,
2013-11-05 03:49:00,77.3,66.3,30.00,WSW,256,3.0,11.0,69,0.00,,,0.00,Wunderground v.1.15,2013-11-05 08:49:00,
2013-11-05 03:51:00,77.3,66.3,30.00,NW,311,4.0,11.0,69,0.00,,,0.00,Wunderground v.1.15,2013-11-05 08:51:00,
2013-11-05 03:55:00,77.3,66.3,30.00,West,264,4.0,11.0,69,0.00,,,0.00,Wunderground v.1.15,2013-11-05 08:55:00,
2013-11-05 03:56:00,77.3,66.3,29.99,North,353,4.0,11.0,69,0.00,,,0.00,Wunderground v.1.15,2013-11-05 08:56:00,
2013-11-05 03:57:00,77.3,66.3,30.00,NW,305,4.0,11.0,69,0.00,,,0.00,Wunderground v.1.15,2013-11-05 08:57:00,
2013-11-05 04:00:00,77.3,66.7,30.00,NW,307,5.0,5.0,70,0.00,,,0.00,Wunderground v.1.15,2013-11-05 09:00:00,
2013-11-05 04:02:00,77.3,66.7,29.99,SW,224,5.0,9.0,70,0.00,,,0.00,Wunderground v.1.15,2013-11-05 09:02:00,
2013-11-05 04:03:00,77.3,66.7,29.99,NW,311,4.0,9.0,70,0.00,,,0.00,Wunderground v.1.15,2013-11-05 09:03:00,
2013-11-05 04:04:00,77.3,66.3,29.99,WNW,298,4.0,9.0,69,0.00,,,0.00,Wunderground v.1.15,2013-11-05 09:04:00,
2013-11-05 04:07:00,77.3,66.3,30.00,SW,232,5.0,9.0,69,0.00,,,0.00,Wunderground v.1.15,2013-11-05 09:07:00,
2013-11-05 04:08:00,77.2,66.2,29.99,WNW,297,5.0,9.0,69,0.00,,,0.00,Wunderground v.1.15,2013-11-05 09:08:00,
2013-11-05 04:09:00,77.3,66.3,29.99,WNW,285,5.0,9.0,69,0.00,,,0.00,Wunderground v.1.15,2013-11-05 09:09:00,
2013-11-05 04:10:00,77.3,66.3,29.99,WNW,291,5.0,5.0,69,0.00,,,0.00,Wunderground v.1.15,2013-11-05 09:10:00,
2013-11-05 04:13:00,77.3,66.7,29.99,WNW,293,5.0,7.0,70,0.00,,,0.00,Wunderground v.1.15,2013-11-05 09:13:00,
2013-11-05 04:14:00,77.2,66.7,29.99,NW,316,5.0,7.0,70,0.00,,,0.00,Wunderground v.1.15,2013-11-05 09:14:00,
2013-11-05 04:15:00,77.2,66.7,29.99,West,274,4.0,7.0,70,0.00,,,0.00,Wunderground v.1.15,2013-11-05 09:15:00,
2013-11-05 04:20:00,77.3,66.7,29.99,WNW,297,5.0,12.0,70,0.00,,,0.00,Wunderground v.1.15,2013-11-05 09:20:00,
2013-11-05 04:21:00,77.3,66.7,29.99,NW,316,5.0,12.0,70,0.00,,,0.00,Wunderground v.1.15,2013-11-05 09:21:00,
2013-11-05 04:22:00,77.4,66.4,29.99,West,261,5.0,12.0,69,0.00,,,0.00,Wunderground v.1.15,2013-11-05 09:22:00,
2013-11-05 04:28:00,77.5,66.5,30.00,NW,316,6.0,12.0,69,0.00,,,0.00,Wunderground v.1.15,2013-11-05 09:28:00,
2013-11-05 04:30:00,77.5,66.5,30.00,WNW,285,6.0,8.0,69,0.00,,,0.00,Wunderground v.1.15,2013-11-05 09:30:00,
2013-11-05 04:32:00,77.5,66.5,30.00,WNW,298,6.0,11.0,69,0.00,,,0.00,Wunderground v.1.15,2013-11-05 09:32:00,
2013-11-05 04:33:00,77.5,66.5,30.00,NW,326,6.0,11.0,69,0.00,,,0.00,Wunderground v.1.15,2013-11-05 09:33:00,
2013-11-05 04:36:00,77.5,66.9,30.00,NW,311,6.0,11.0,70,0.00,,,0.00,Wunderground v.1.15,2013-11-05 09:36:00,
2013-11-05 04:37:00,77.5,66.5,30.00,WNW,290,6.0,11.0,69,0.00,,,0.00,Wunderground v.1.15,2013-11-05 09:37:00,
2013-11-05 04:39:00,77.5,66.5,30.00,WNW,293,6.0,11.0,69,0.00,,,0.00,Wunderground v.1.15,2013-11-05 09:39:00,
2013-11-05 04:40:00,77.5,66.5,30.00,WSW,254,6.0,11.0,69,0.00,,,0.00,Wunderground v.1.15,2013-11-05 09:40:00,
2013-11-05 04:41:00,77.5,66.5,30.00,WNW,285,6.0,11.0,69,0.00,,,0.00,Wunderground v.1.15,2013-11-05 09:41:00,
2013-11-05 04:45:00,77.5,66.5,30.00,North,349,6.0,11.0,69,0.00,,,0.00,Wunderground v.1.15,2013-11-05 09:45:00,
2013-11-05 04:46:00,77.5,66.5,30.00,SW,236,6.0,11.0,69,0.00,,,0.00,Wunderground v.1.15,2013-11-05 09:46:00,
2013-11-05 04:47:00,77.5,66.5,30.00,WNW,290,6.0,11.0,69,0.00,,,0.00,Wunderground v.1.15,2013-11-05 09:47:00,
2013-11-05 04:49:00,77.5,66.5,30.00,ESE,122,5.0,11.0,69,0.00,,,0.00,Wunderground v.1.15,2013-11-05 09:49:00,
2013-11-05 04:51:00,77.5,66.5,30.00,West,276,5.0,11.0,69,0.00,,,0.00,Wunderground v.1.15,2013-11-05 09:51:00,
2013-11-05 04:52:00,77.5,66.5,30.00,NW,305,5.0,11.0,69,0.00,,,0.00,Wunderground v.1.15,2013-11-05 09:52:00,
2013-11-05 04:53:00,77.5,66.5,30.00,West,277,6.0,11.0,69,0.00,,,0.00,Wunderground v.1.15,2013-11-05 09:53:00,
2013-11-05 04:54:00,77.5,66.5,30.00,WNW,286,6.0,11.0,69,0.00,,,0.00,Wunderground v.1.15,2013-11-05 09:54:00,
2013-11-05 04:55:00,77.6,66.6,30.00,NNW,328,5.0,11.0,69,0.00,,,0.00,Wunderground v.1.15,2013-11-05 09:55:00,
2013-11-05 04:59:00,77.6,66.6,30.00,WNW,289,6.0,12.0,69,0.00,,,0.00,Wunderground v.1.15,2013-11-05 09:59:00,
2013-11-05 05:03:00,77.6,66.6,30.00,WNW,285,6.0,7.0,69,0.00,,,0.00,Wunderground v.1.15,2013-11-05 10:03:00,
2013-11-05 05:04:00,77.5,66.5,30.00,NW,310,6.0,13.0,69,0.00,,,0.00,Wunderground v.1.15,2013-11-05 10:04:00,
2013-11-05 05:05:00,77.5,66.1,30.00,SSW,194,6.0,13.0,68,0.00,,,0.00,Wunderground v.1.15,2013-11-05 10:05:00,
2013-11-05 05:09:00,77.6,66.2,30.00,WNW,300,5.0,13.0,68,0.00,,,0.00,Wunderground v.1.15,2013-11-05 10:09:00,
2013-11-05 05:10:00,77.6,66.2,30.00,NW,305,5.0,5.0,68,0.00,,,0.00,Wunderground v.1.15,2013-11-05 10:10:00,
2013-11-05 05:11:00,77.6,66.2,30.00,NNW,331,5.0,5.0,68,0.00,,,0.00,Wunderground v.1.15,2013-11-05 10:11:00,
2013-11-05 05:12:00,77.6,66.2,30.00,West,273,5.0,5.0,68,0.00,,,0.00,Wunderground v.1.15,2013-11-05 10:12:00,
2013-11-05 05:13:00,77.7,66.3,30.00,NW,323,5.0,5.0,68,0.00,,,0.00,Wunderground v.1.15,2013-11-05 10:13:00,
2013-11-05 05:16:00,77.7,65.9,30.00,WNW,296,5.0,6.0,67,0.00,,,0.00,Wunderground v.1.15,2013-11-05 10:16:00,
2013-11-05 05:17:00,77.7,65.9,30.00,West,274,5.0,9.0,67,0.00,,,0.00,Wunderground v.1.15,2013-11-05 10:17:00,
2013-11-05 05:18:00,77.7,65.9,30.00,WNW,286,5.0,9.0,67,0.00,,,0.00,Wunderground v.1.15,2013-11-05 10:18:00,
2013-11-05 05:19:00,77.8,66.0,30.00,NW,307,6.0,9.0,67,0.00,,,0.00,Wunderground v.1.15,2013-11-05 10:19:00,
2013-11-05 05:23:00,77.8,65.5,30.00,WNW,301,6.0,7.0,66,0.00,,,0.00,Wunderground v.1.15,2013-11-05 10:23:00,
2013-11-05 05:24:00,77.9,65.6,30.00,NW,320,6.0,9.0,66,0.00,,,0.00,Wunderground v.1.15,2013-11-05 10:24:00,
2013-11-05 05:26:00,77.9,65.6,30.00,NW,326,6.0,13.0,66,0.00,,,0.00,Wunderground v.1.15,2013-11-05 10:26:00,
2013-11-05 05:27:00,77.9,65.6,30.00,NW,314,7.0,13.0,66,0.00,,,0.00,Wunderground v.1.15,2013-11-05 10:27:00,
2013-11-05 05:30:00,78.0,65.7,30.00,NW,321,6.0,6.0,66,0.00,,,0.00,Wunderground v.1.15,2013-11-05 10:30:00,
2013-11-05 05:31:00,78.0,65.7,30.00,NW,304,7.0,7.0,66,0.00,,,0.00,Wunderground v.1.15,2013-11-05 10:31:00,
2013-11-05 05:32:00,78.0,65.3,30.00,NW,321,7.0,9.0,65,0.00,,,0.00,Wunderground v.1.15,2013-11-05 10:32:00,
2013-11-05 05:35:00,78.0,65.7,30.00,West,278,6.0,14.0,66,0.00,,,0.00,Wunderground v.1.15,2013-11-05 10:35:00,
2013-11-05 05:37:00,78.0,65.7,30.00,NW,308,6.0,14.0,66,0.00,,,0.00,Wunderground v.1.15,2013-11-05 10:37:00,
2013-11-05 05:39:00,78.0,65.7,30.00,NW,306,5.0,14.0,66,0.00,,,0.00,Wunderground v.1.15,2013-11-05 10:39:00,
2013-11-05 05:42:00,78.0,66.2,30.00,WNW,302,5.0,14.0,67,0.00,,,0.00,Wunderground v.1.15,2013-11-05 10:42:00,
2013-11-05 05:43:00,78.0,66.2,30.00,West,267,5.0,14.0,67,0.00,,,0.00,Wunderground v.1.15,2013-11-05 10:43:00,
2013-11-05 05:45:00,78.0,66.2,30.00,NNW,335,5.0,14.0,67,0.00,,,0.00,Wunderground v.1.15,2013-11-05 10:45:00,
2013-11-05 05:46:00,78.1,66.2,30.00,NNW,340,5.0,14.0,67,0.00,,,0.00,Wunderground v.1.15,2013-11-05 10:46:00,
2013-11-05 05:48:00,78.1,66.2,30.00,WNW,295,5.0,14.0,67,0.00,,,0.00,Wunderground v.1.15,2013-11-05 10:48:00,
2013-11-05 05:51:00,78.1,65.8,30.00,WNW,288,5.0,14.0,66,0.00,,,0.00,Wunderground v.1.15,2013-11-05 10:51:00,
2013-11-05 05:52:00,78.1,66.2,30.00,WNW,285,5.0,14.0,67,0.00,,,0.00,Wunderground v.1.15,2013-11-05 10:52:00,
2013-11-05 05:53:00,78.1,66.2,30.00,WNW,300,6.0,14.0,67,0.00,,,0.00,Wunderground v.1.15,2013-11-05 10:53:00,
2013-11-05 05:58:00,78.1,66.7,30.00,WNW,290,6.0,14.0,68,0.00,,,0.00,Wunderground v.1.15,2013-11-05 10:58:00,
2013-11-05 06:00:00,78.1,66.7,30.00,NNW,330,6.0,6.0,68,0.00,,,0.00,Wunderground v.1.15,2013-11-05 11:00:00,
2013-11-05 06:01:00,78.1,66.7,30.00,South,173,6.0,6.0,68,0.00,,,0.00,Wunderground v.1.15,2013-11-05 11:01:00,
2013-11-05 06:02:00,78.1,66.7,30.00,WNW,295,5.0,6.0,68,0.00,,,0.00,Wunderground v.1.15,2013-11-05 11:02:00,
2013-11-05 06:03:00,78.1,66.7,30.00,NW,314,5.0,7.0,68,0.00,,,0.00,Wunderground v.1.15,2013-11-05 11:03:00,
2013-11-05 06:09:00,78.1,66.2,30.00,WSW,238,5.0,8.0,67,0.00,,,0.00,Wunderground v.1.15,2013-11-05 11:09:00,
2013-11-05 06:10:00,78.1,66.2,30.00,West,263,5.0,5.0,67,0.00,,,0.00,Wunderground v.1.15,2013-11-05 11:10:00,
2013-11-05 06:11:00,78.1,65.8,30.00,West,281,5.0,5.0,66,0.00,,,0.00,Wunderground v.1.15,2013-11-05 11:11:00,
2013-11-05 06:12:00,78.1,66.2,30.00,WNW,293,6.0,6.0,67,0.00,,,0.00,Wunderground v.1.15,2013-11-05 11:12:00,
2013-11-05 06:13:00,78.1,66.2,30.00,West,278,6.0,9.0,67,0.00,,,0.00,Wunderground v.1.15,2013-11-05 11:13:00,
2013-11-05 06:18:00,78.2,66.3,30.01,NW,311,6.0,11.0,67,0.00,,,0.00,Wunderground v.1.15,2013-11-05 11:18:00,
2013-11-05 06:22:00,78.2,65.9,30.01,West,276,6.0,7.0,66,0.00,,,0.00,Wunderground v.1.15,2013-11-05 11:22:00,
2013-11-05 06:23:00,78.2,65.9,30.00,WSW,252,6.0,7.0,66,0.00,,,0.00,Wunderground v.1.15,2013-11-05 11:23:00,
2013-11-05 06:24:00,78.2,66.3,30.00,NW,307,6.0,7.0,67,0.00,,,0.00,Wunderground v.1.15,2013-11-05 11:24:00,
2013-11-05 06:25:00,78.3,66.4,30.01,West,281,6.0,7.0,67,0.00,,,0.00,Wunderground v.1.15,2013-11-05 11:25:00,
2013-11-05 06:28:00,78.2,66.3,30.01,WNW,302,5.0,7.0,67,0.00,,,0.00,Wunderground v.1.15,2013-11-05 11:28:00,
2013-11-05 06:30:00,78.2,66.3,30.01,NW,307,5.0,5.0,67,0.00,,,0.00,Wunderground v.1.15,2013-11-05 11:30:00,
2013-11-05 06:31:00,78.2,66.3,30.01,West,265,4.0,17.0,67,0.00,,,0.00,Wunderground v.1.15,2013-11-05 11:31:00,
2013-11-05 06:34:00,78.2,66.8,30.01,NW,321,4.0,17.0,68,0.00,,,0.00,Wunderground v.1.15,2013-11-05 11:34:00,
2013-11-05 06:35:00,78.2,66.8,30.01,North,353,4.0,17.0,68,0.00,,,0.00,Wunderground v.1.15,2013-11-05 11:35:00,
2013-11-05 06:39:00,78.2,67.2,30.01,SW,218,4.0,17.0,69,0.00,,,0.00,Wunderground v.1.15,2013-11-05 11:39:00,
2013-11-05 06:41:00,78.2,67.2,30.01,NW,316,5.0,17.0,69,0.00,,,0.00,Wunderground v.1.15,2013-11-05 11:41:00,
2013-11-05 06:43:00,78.2,66.8,30.01,WNW,290,5.0,17.0,68,0.00,,,0.00,Wunderground v.1.15,2013-11-05 11:43:00,
2013-11-05 06:44:00,78.2,66.8,30.01,North,359,5.0,17.0,68,0.00,,,0.00,Wunderground v.1.15,2013-11-05 11:44:00,
2013-11-05 06:45:00,78.2,66.8,30.01,SW,215,5.0,17.0,68,0.00,,,0.00,Wunderground v.1.15,2013-11-05 11:45:00,
2013-11-05 06:46:00,78.2,66.8,30.01,WNW,297,5.0,17.0,68,0.00,,,0.00,Wunderground v.1.15,2013-11-05 11:46:00,
2013-11-05 06:47:00,78.2,66.8,30.01,NW,306,5.0,17.0,68,0.00,,,0.00,Wunderground v.1.15,2013-11-05 11:47:00,
2013-11-05 06:51:00,78.3,67.3,30.01,WSW,241,6.0,17.0,69,0.00,,,0.00,Wunderground v.1.15,2013-11-05 11:51:00,
2013-11-05 06:52:00,78.3,67.3,30.01,West,279,6.0,17.0,69,0.00,,,0.00,Wunderground v.1.15,2013-11-05 11:52:00,
2013-11-05 06:53:00,78.3,67.3,30.01,WNW,289,6.0,17.0,69,0.00,,,0.00,Wunderground v.1.15,2013-11-05 11:53:00,
2013-11-05 06:54:00,78.3,67.3,30.01,WNW,297,6.0,17.0,69,0.00,,,0.00,Wunderground v.1.15,2013-11-05 11:54:00,
2013-11-05 06:59:00,78.2,67.6,30.01,WNW,290,4.0,17.0,70,0.00,,,0.00,Wunderground v.1.15,2013-11-05 11:59:00,
2013-11-05 07:00:00,78.2,67.6,30.01,WNW,283,4.0,4.0,70,0.00,,,0.00,Wunderground v.1.15,2013-11-05 12:00:00,
2013-11-05 07:01:00,78.2,67.6,30.01,NW,319,4.0,4.0,70,0.00,,,0.00,Wunderground v.1.15,2013-11-05 12:01:00,
2013-11-05 07:03:00,78.2,68.0,30.01,NW,308,4.0,7.0,71,0.00,,,0.00,Wunderground v.1.15,2013-11-05 12:03:00,
2013-11-05 07:05:00,78.2,68.0,30.02,West,263,4.0,7.0,71,0.00,,,0.00,Wunderground v.1.15,2013-11-05 12:05:00,
2013-11-05 07:07:00,78.2,68.0,30.02,NW,310,4.0,7.0,71,0.00,,,0.00,Wunderground v.1.15,2013-11-05 12:07:00,
2013-11-05 07:09:00,78.2,68.4,30.02,WNW,294,5.0,11.0,72,0.00,,,0.00,Wunderground v.1.15,2013-11-05 12:09:00,
2013-11-05 07:10:00,78.3,68.5,30.02,West,261,5.0,10.0,72,0.00,,,0.00,Wunderground v.1.15,2013-11-05 12:10:00,
2013-11-05 07:11:00,78.3,68.5,30.02,NW,307,6.0,10.0,72,0.00,,,0.00,Wunderground v.1.15,2013-11-05 12:11:00,
2013-11-05 07:17:00,78.2,68.4,30.02,WNW,293,6.0,10.0,72,0.00,,,0.00,Wunderground v.1.15,2013-11-05 12:17:00,
2013-11-05 07:19:00,78.2,68.8,30.02,NNW,348,5.0,10.0,73,0.00,,,0.00,Wunderground v.1.15,2013-11-05 12:19:00,
2013-11-05 07:22:00,78.3,68.9,30.02,WNW,290,5.0,7.0,73,0.00,,,0.00,Wunderground v.1.15,2013-11-05 12:22:00,
2013-11-05 07:24:00,78.3,68.9,30.02,WNW,293,5.0,7.0,73,0.00,,,0.00,Wunderground v.1.15,2013-11-05 12:24:00,
2013-11-05 07:26:00,78.3,68.9,30.02,WNW,290,5.0,7.0,73,0.00,,,0.00,Wunderground v.1.15,2013-11-05 12:26:00,
2013-11-05 07:28:00,78.3,68.9,30.03,NNW,327,5.0,8.0,73,0.00,,,0.00,Wunderground v.1.15,2013-11-05 12:28:00,
2013-11-05 07:29:00,78.3,68.9,30.03,WNW,302,5.0,8.0,73,0.00,,,0.00,Wunderground v.1.15,2013-11-05 12:29:00,
2013-11-05 07:30:00,78.3,68.9,30.03,WNW,298,6.0,10.0,73,0.00,,,0.00,Wunderground v.1.15,2013-11-05 12:30:00,
2013-11-05 07:32:00,78.4,69.0,30.03,NNW,338,6.0,14.0,73,0.00,,,0.00,Wunderground v.1.15,2013-11-05 12:32:00,
2013-11-05 07:34:00,78.4,69.0,30.03,West,268,6.0,14.0,73,0.00,,,0.00,Wunderground v.1.15,2013-11-05 12:34:00,
2013-11-05 07:35:00,78.4,68.6,30.03,North,3,6.0,14.0,72,0.00,,,0.00,Wunderground v.1.15,2013-11-05 12:35:00,
2013-11-05 07:36:00,78.4,68.6,30.03,WSW,254,6.0,14.0,72,0.00,,,0.00,Wunderground v.1.15,2013-11-05 12:36:00,
2013-11-05 07:38:00,78.4,68.6,30.03,NW,310,6.0,14.0,72,0.00,,,0.00,Wunderground v.1.15,2013-11-05 12:38:00,
2013-11-05 07:39:00,78.4,68.6,30.03,NW,306,7.0,14.0,72,0.00,,,0.00,Wunderground v.1.15,2013-11-05 12:39:00,
2013-11-05 07:41:00,78.4,68.6,30.03,WNW,282,6.0,14.0,72,0.00,,,0.00,Wunderground v.1.15,2013-11-05 12:41:00,
2013-11-05 07:44:00,78.5,69.1,30.03,West,281,7.0,14.0,73,0.00,,,0.00,Wunderground v.1.15,2013-11-05 12:44:00,
2013-11-05 07:45:00,78.5,69.1,30.03,WNW,298,6.0,14.0,73,0.00,,,0.00,Wunderground v.1.15,2013-11-05 12:45:00,
2013-11-05 07:46:00,78.5,69.1,30.03,WNW,289,6.0,14.0,73,0.00,,,0.00,Wunderground v.1.15,2013-11-05 12:46:00,
2013-11-05 07:49:00,78.5,69.1,30.03,WSW,255,6.0,14.0,73,0.00,,,0.00,Wunderground v.1.15,2013-11-05 12:49:00,
2013-11-05 07:50:00,78.5,69.1,30.03,WNW,291,6.0,6.0,73,0.00,,,0.00,Wunderground v.1.15,2013-11-05 12:50:00,
2013-11-05 07:52:00,78.5,69.1,30.03,WNW,302,5.0,14.0,73,0.00,,,0.00,Wunderground v.1.15,2013-11-05 12:52:00,
2013-11-05 07:53:00,78.5,69.1,30.03,WNW,285,5.0,14.0,73,0.00,,,0.00,Wunderground v.1.15,2013-11-05 12:53:00,
2013-11-05 07:56:00,78.6,69.2,30.03,SW,229,5.0,14.0,73,0.00,,,0.00,Wunderground v.1.15,2013-11-05 12:56:00,
2013-11-05 07:58:00,78.6,69.2,30.03,West,278,5.0,14.0,73,0.00,,,0.00,Wunderground v.1.15,2013-11-05 12:58:00,
2013-11-05 07:59:00,78.7,69.3,30.03,WNW,300,5.0,14.0,73,0.00,,,0.00,Wunderground v.1.15,2013-11-05 12:59:00,
2013-11-05 08:01:00,78.7,68.9,30.04,NW,314,5.0,6.0,72,0.00,,,0.00,Wunderground v.1.15,2013-11-05 13:01:00,
2013-11-05 08:02:00,78.7,68.9,30.04,NW,304,5.0,7.0,72,0.00,,,0.00,Wunderground v.1.15,2013-11-05 13:02:00,
2013-11-05 08:05:00,78.8,68.6,30.04,WNW,290,6.0,8.0,71,0.00,,,0.00,Wunderground v.1.15,2013-11-05 13:05:00,
2013-11-05 08:06:00,78.8,68.6,30.04,WNW,294,6.0,8.0,71,0.00,,,0.00,Wunderground v.1.15,2013-11-05 13:06:00,
2013-11-05 08:07:00,78.9,68.7,30.04,West,276,6.0,8.0,71,0.00,,,0.00,Wunderground v.1.15,2013-11-05 13:07:00,
2013-11-05 08:08:00,78.9,68.7,30.04,NW,317,6.0,8.0,71,0.00,,,0.00,Wunderground v.1.15,2013-11-05 13:08:00,
2013-11-05 08:12:00,79.0,68.4,30.04,North,6,7.0,7.0,70,0.00,,,0.00,Wunderground v.1.15,2013-11-05 13:12:00,
2013-11-05 08:14:00,79.1,68.1,30.04,NW,321,6.0,7.0,69,0.00,,,0.00,Wunderground v.1.15,2013-11-05 13:14:00,
2013-11-05 08:16:00,79.1,68.1,30.04,WNW,284,6.0,7.0,69,0.00,,,0.00,Wunderground v.1.15,2013-11-05 13:16:00,
2013-11-05 08:19:00,79.2,67.7,30.04,WNW,303,6.0,11.0,68,0.00,,,0.00,Wunderground v.1.15,2013-11-05 13:19:00,
2013-11-05 08:20:00,79.2,67.7,30.04,West,281,6.0,10.0,68,0.00,,,0.00,Wunderground v.1.15,2013-11-05 13:20:00,
2013-11-05 08:21:00,79.2,67.7,30.04,NW,310,7.0,10.0,68,0.00,,,0.00,Wunderground v.1.15,2013-11-05 13:21:00,
2013-11-05 08:22:00,79.2,68.1,30.04,NW,315,6.0,10.0,69,0.00,,,0.00,Wunderground v.1.15,2013-11-05 13:22:00,
2013-11-05 08:25:00,79.2,68.1,30.04,WNW,288,8.0,10.0,69,0.00,,,0.00,Wunderground v.1.15,2013-11-05 13:25:00,
2013-11-05 08:26:00,79.3,68.2,30.04,WNW,283,7.0,10.0,69,0.00,,,0.00,Wunderground v.1.15,2013-11-05 13:26:00,
2013-11-05 08:27:00,79.3,68.2,30.04,NW,315,7.0,10.0,69,0.00,,,0.00,Wunderground v.1.15,2013-11-05 13:27:00,
2013-11-05 08:30:00,79.4,68.8,30.05,NNW,348,7.0,7.0,70,0.00,,,0.00,Wunderground v.1.15,2013-11-05 13:30:00,
2013-11-05 08:33:00,79.5,68.9,30.05,NW,307,6.0,17.0,70,0.00,,,0.00,Wunderground v.1.15,2013-11-05 13:33:00,
2013-11-05 08:35:00,79.6,69.0,30.05,WNW,289,6.0,17.0,70,0.00,,,0.00,Wunderground v.1.15,2013-11-05 13:35:00,
2013-11-05 08:36:00,79.6,69.0,30.04,WNW,283,6.0,17.0,70,0.00,,,0.00,Wunderground v.1.15,2013-11-05 13:36:00,
2013-11-05 08:38:00,79.8,69.1,30.04,West,278,6.0,17.0,70,0.00,,,0.00,Wunderground v.1.15,2013-11-05 13:38:00,
2013-11-05 08:39:00,79.9,69.2,30.04,South,175,6.0,17.0,70,0.00,,,0.00,Wunderground v.1.15,2013-11-05 13:39:00,
2013-11-05 08:40:00,79.9,69.2,30.05,West,276,6.0,17.0,70,0.00,,,0.00,Wunderground v.1.15,2013-11-05 13:40:00,
2013-11-05 08:41:00,80.0,69.3,30.05,NNW,327,6.0,17.0,70,0.00,,,0.00,Wunderground v.1.15,2013-11-05 13:41:00,
2013-11-05 08:44:00,80.0,69.3,30.05,NW,323,7.0,17.0,70,0.00,,,0.00,Wunderground v.1.15,2013-11-05 13:44:00,
2013-11-05 08:45:00,80.0,69.3,30.05,North,357,6.0,17.0,70,0.00,,,0.00,Wunderground v.1.15,2013-11-05 13:45:00,
2013-11-05 08:47:00,80.0,69.3,30.05,North,8,6.0,17.0,70,0.00,,,0.00,Wunderground v.1.15,2013-11-05 13:47:00,
2013-11-05 08:48:00,80.0,69.3,30.05,NNW,335,7.0,17.0,70,0.00,,,0.00,Wunderground v.1.15,2013-11-05 13:48:00,
2013-11-05 08:51:00,80.0,69.3,30.05,NNW,348,7.0,17.0,70,0.00,,,0.00,Wunderground v.1.15,2013-11-05 13:51:00,
2013-11-05 08:54:00,80.0,69.3,30.05,NNE,24,7.0,17.0,70,0.00,,,0.00,Wunderground v.1.15,2013-11-05 13:54:00,
2013-11-05 08:55:00,80.0,69.3,30.05,NW,323,7.0,17.0,70,0.00,,,0.00,Wunderground v.1.15,2013-11-05 13:55:00,
2013-11-05 08:58:00,79.9,68.8,30.05,SSW,205,7.0,17.0,69,0.00,,,0.00,Wunderground v.1.15,2013-11-05 13:58:00,
2013-11-05 09:00:00,79.8,68.7,30.05,South,171,7.0,7.0,69,0.00,,,0.00,Wunderground v.1.15,2013-11-05 14:00:00,
2013-11-05 09:01:00,79.7,68.6,30.05,SSW,213,7.0,10.0,69,0.00,,,0.00,Wunderground v.1.15,2013-11-05 14:01:00,
2013-11-05 09:03:00,79.6,68.5,30.05,NNE,14,7.0,10.0,69,0.00,,,0.00,Wunderground v.1.15,2013-11-05 14:03:00,
2013-11-05 09:06:00,79.6,68.5,30.05,NNE,14,7.0,10.0,69,0.00,,,0.00,Wunderground v.1.15,2013-11-05 14:06:00,
2013-11-05 09:08:00,79.6,68.1,30.05,NW,321,7.0,17.0,68,0.00,,,0.00,Wunderground v.1.15,2013-11-05 14:08:00,
2013-11-05 09:09:00,79.6,68.5,30.05,NW,309,7.0,17.0,69,0.00,,,0.00,Wunderground v.1.15,2013-11-05 14:09:00,
2013-11-05 09:11:00,79.6,68.1,30.05,NNE,28,7.0,9.0,68,0.00,,,0.00,Wunderground v.1.15,2013-11-05 14:11:00,
2013-11-05 09:12:00,79.7,68.2,30.06,NNW,338,7.0,9.0,68,0.00,,,0.00,Wunderground v.1.15,2013-11-05 14:12:00,
2013-11-05 09:13:00,79.7,68.6,30.06,NW,317,7.0,10.0,69,0.00,,,0.00,Wunderground v.1.15,2013-11-05 14:13:00,
2013-11-05 09:15:00,79.9,68.4,30.05,WNW,289,7.0,10.0,68,0.00,,,0.00,Wunderground v.1.15,2013-11-05 14:15:00,
2013-11-05 09:16:00,79.9,68.4,30.06,NW,313,8.0,10.0,68,0.00,,,0.00,Wunderground v.1.15,2013-11-05 14:16:00,
2013-11-05 09:18:00,80.0,68.9,30.06,NW,316,7.0,10.0,69,0.00,,,0.00,Wunderground v.1.15,2013-11-05 14:18:00,
2013-11-05 09:20:00,80.0,68.9,30.06,West,266,7.0,7.0,69,0.00,,,0.00,Wunderground v.1.15,2013-11-05 14:20:00,
2013-11-05 09:21:00,79.9,68.8,30.05,NW,316,7.0,7.0,69,0.00,,,0.00,Wunderground v.1.15,2013-11-05 14:21:00,
2013-11-05 09:22:00,79.9,68.8,30.05,NW,314,6.0,12.0,69,0.00,,,0.00,Wunderground v.1.15,2013-11-05 14:22:00,
2013-11-05 09:23:00,79.9,68.8,30.06,WSW,253,7.0,12.0,69,0.00,,,0.00,Wunderground v.1.15,2013-11-05 14:23:00,
2013-11-05 09:24:00,79.9,68.8,30.06,South,186,7.0,12.0,69,0.00,,,0.00,Wunderground v.1.15,2013-11-05 14:24:00,
2013-11-05 09:25:00,80.0,68.9,30.06,WNW,289,6.0,12.0,69,0.00,,,0.00,Wunderground v.1.15,2013-11-05 14:25:00,
2013-11-05 09:28:00,80.1,69.0,30.06,WNW,295,6.0,12.0,69,0.00,,,0.00,Wunderground v.1.15,2013-11-05 14:28:00,
2013-11-05 09:30:00,80.1,68.6,30.06,WNW,302,6.0,9.0,68,0.00,,,0.00,Wunderground v.1.15,2013-11-05 14:30:00,
2013-11-05 09:32:00,80.2,69.1,30.06,West,276,6.0,19.0,69,0.00,,,0.00,Wunderground v.1.15,2013-11-05 14:32:00,
2013-11-05 09:33:00,80.2,69.1,30.06,West,279,5.0,19.0,69,0.00,,,0.00,Wunderground v.1.15,2013-11-05 14:33:00,
2013-11-05 09:34:00,80.3,68.8,30.06,West,269,6.0,19.0,68,0.00,,,0.00,Wunderground v.1.15,2013-11-05 14:34:00,
2013-11-05 09:36:00,80.4,68.9,30.06,WNW,303,5.0,19.0,68,0.00,,,0.00,Wunderground v.1.15,2013-11-05 14:36:00,
2013-11-05 09:40:00,80.5,68.5,30.06,WNW,292,5.0,5.0,67,0.00,,,0.00,Wunderground v.1.15,2013-11-05 14:40:00,
2013-11-05 09:42:00,80.5,68.1,30.06,NE,56,5.0,19.0,66,0.00,,,0.00,Wunderground v.1.15,2013-11-05 14:42:00,
2013-11-05 09:43:00,80.5,68.1,30.06,North,349,5.0,19.0,66,0.00,,,0.00,Wunderground v.1.15,2013-11-05 14:43:00,
2013-11-05 09:45:00,80.6,67.7,30.06,NNW,346,6.0,19.0,65,0.00,,,0.00,Wunderground v.1.15,2013-11-05 14:45:00,
2013-11-05 09:49:00,80.7,67.8,30.06,NNE,31,8.0,19.0,65,0.00,,,0.00,Wunderground v.1.15,2013-11-05 14:49:00,
2013-11-05 09:50:00,80.7,67.8,30.06,North,8,7.0,19.0,65,0.00,,,0.00,Wunderground v.1.15,2013-11-05 14:50:00,
2013-11-05 09:51:00,80.8,67.9,30.06,North,358,7.0,19.0,65,0.00,,,0.00,Wunderground v.1.15,2013-11-05 14:51:00,
2013-11-05 09:52:00,80.8,67.9,30.06,NE,40,8.0,19.0,65,0.00,,,0.00,Wunderground v.1.15,2013-11-05 14:52:00,
2013-11-05 09:54:00,80.8,67.9,30.06,NE,38,8.0,19.0,65,0.00,,,0.00,Wunderground v.1.15,2013-11-05 14:54:00,
2013-11-05 09:55:00,80.8,67.9,30.06,SSW,211,8.0,19.0,65,0.00,,,0.00,Wunderground v.1.15,2013-11-05 14:55:00,
2013-11-05 09:56:00,80.8,67.5,30.06,SW,215,8.0,19.0,64,0.00,,,0.00,Wunderground v.1.15,2013-11-05 14:56:00,
2013-11-05 09:58:00,80.8,67.5,30.06,SSE,167,8.0,19.0,64,0.00,,,0.00,Wunderground v.1.15,2013-11-05 14:58:00,
2013-11-05 10:00:00,80.8,67.5,30.06,South,188,8.0,8.0,64,0.00,,,0.00,Wunderground v.1.15,2013-11-05 15:00:00,
2013-11-05 10:02:00,80.7,67.4,30.06,SSE,161,8.0,9.0,64,0.00,,,0.00,Wunderground v.1.15,2013-11-05 15:02:00,
2013-11-05 10:03:00,80.7,67.4,30.06,South,184,8.0,14.0,64,0.00,,,0.00,Wunderground v.1.15,2013-11-05 15:03:00,
2013-11-05 10:08:00,80.8,67.9,30.06,South,178,8.0,14.0,65,0.00,,,0.00,Wunderground v.1.15,2013-11-05 15:08:00,
2013-11-05 10:09:00,80.8,67.9,30.06,SSE,148,8.0,17.0,65,0.00,,,0.00,Wunderground v.1.15,2013-11-05 15:09:00,
2013-11-05 10:11:00,80.8,68.4,30.06,SSE,150,9.0,9.0,66,0.00,,,0.00,Wunderground v.1.15,2013-11-05 15:11:00,
2013-11-05 10:14:00,80.8,68.4,30.06,SW,236,8.0,11.0,66,0.00,,,0.00,Wunderground v.1.15,2013-11-05 15:14:00,
2013-11-05 10:15:00,80.9,68.5,30.06,East,95,7.0,11.0,66,0.00,,,0.00,Wunderground v.1.15,2013-11-05 15:15:00,
2013-11-05 10:16:00,80.9,68.9,30.06,West,277,7.0,11.0,67,0.00,,,0.00,Wunderground v.1.15,2013-11-05 15:16:00,
2013-11-05 10:17:00,80.9,68.9,30.06,ESE,116,7.0,11.0,67,0.00,,,0.00,Wunderground v.1.15,2013-11-05 15:17:00,
2013-11-05 10:19:00,81.0,68.6,30.06,SSE,162,7.0,11.0,66,0.00,,,0.00,Wunderground v.1.15,2013-11-05 15:19:00,
2013-11-05 10:20:00,81.0,68.6,30.06,SE,141,7.0,7.0,66,0.00,,,0.00,Wunderground v.1.15,2013-11-05 15:20:00,
2013-11-05 10:22:00,81.0,69.0,30.06,SSE,168,7.0,16.0,67,0.00,,,0.00,Wunderground v.1.15,2013-11-05 15:22:00,
2013-11-05 10:23:00,81.0,68.6,30.06,SSE,160,7.0,16.0,66,0.00,,,0.00,Wunderground v.1.15,2013-11-05 15:23:00,
2013-11-05 10:26:00,81.1,68.7,30.06,SSE,161,7.0,16.0,66,0.00,,,0.00,Wunderground v.1.15,2013-11-05 15:26:00,
2013-11-05 10:28:00,81.2,68.8,30.06,South,175,8.0,16.0,66,0.00,,,0.00,Wunderground v.1.15,2013-11-05 15:28:00,
2013-11-05 10:29:00,81.3,68.9,30.06,SSE,157,7.0,16.0,66,0.00,,,0.00,Wunderground v.1.15,2013-11-05 15:29:00,
2013-11-05 10:32:00,81.5,68.6,30.06,SSE,150,7.0,17.0,65,0.00,,,0.00,Wunderground v.1.15,2013-11-05 15:32:00,
2013-11-05 10:34:00,81.7,68.3,30.05,South,190,6.0,17.0,64,0.00,,,0.00,Wunderground v.1.15,2013-11-05 15:34:00,
2013-11-05 10:35:00,81.7,68.3,30.06,SSE,168,6.0,17.0,64,0.00,,,0.00,Wunderground v.1.15,2013-11-05 15:35:00,
2013-11-05 10:38:00,81.9,69.0,30.05,SW,224,5.0,17.0,65,0.00,,,0.00,Wunderground v.1.15,2013-11-05 15:38:00,
2013-11-05 10:39:00,82.0,68.6,30.05,SSW,197,5.0,17.0,64,0.00,,,0.00,Wunderground v.1.15,2013-11-05 15:39:00,
2013-11-05 10:41:00,82.0,68.2,30.05,SE,136,5.0,17.0,63,0.00,,,0.00,Wunderground v.1.15,2013-11-05 15:41:00,
2013-11-05 10:42:00,82.0,68.2,30.05,SW,229,5.0,17.0,63,0.00,,,0.00,Wunderground v.1.15,2013-11-05 15:42:00,
2013-11-05 10:43:00,81.9,68.1,30.05,South,188,6.0,17.0,63,0.00,,,0.00,Wunderground v.1.15,2013-11-05 15:43:00,
2013-11-05 10:45:00,81.9,68.1,30.05,SSE,168,6.0,17.0,63,0.00,,,0.00,Wunderground v.1.15,2013-11-05 15:45:00,
2013-11-05 10:46:00,81.9,68.1,30.05,SSE,166,6.0,17.0,63,0.00,,,0.00,Wunderground v.1.15,2013-11-05 15:46:00,
2013-11-05 10:47:00,81.9,68.1,30.05,WSW,247,6.0,17.0,63,0.00,,,0.00,Wunderground v.1.15,2013-11-05 15:47:00,
2013-11-05 10:50:00,82.1,68.3,30.05,SSW,198,6.0,6.0,63,0.00,,,0.00,Wunderground v.1.15,2013-11-05 15:50:00,
2013-11-05 10:51:00,82.2,68.3,30.05,South,179,6.0,17.0,63,0.00,,,0.00,Wunderground v.1.15,2013-11-05 15:51:00,
2013-11-05 10:52:00,82.3,68.4,30.05,SSE,155,5.0,17.0,63,0.00,,,0.00,Wunderground v.1.15,2013-11-05 15:52:00,
2013-11-05 10:53:00,82.3,68.0,30.05,South,171,5.0,17.0,62,0.00,,,0.00,Wunderground v.1.15,2013-11-05 15:53:00,
2013-11-05 10:55:00,82.2,67.4,30.05,SSW,196,6.0,17.0,61,0.00,,,0.00,Wunderground v.1.15,2013-11-05 15:55:00,
2013-11-05 10:56:00,82.2,67.4,30.05,South,170,6.0,17.0,61,0.00,,,0.00,Wunderground v.1.15,2013-11-05 15:56:00,
2013-11-05 10:57:00,82.2,67.4,30.05,SSW,199,6.0,17.0,61,0.00,,,0.00,Wunderground v.1.15,2013-11-05 15:57:00,
2013-11-05 11:00:00,82.2,67.4,30.05,SSE,155,6.0,6.0,61,0.00,,,0.00,Wunderground v.1.15,2013-11-05 16:00:00,
2013-11-05 11:01:00,82.3,67.5,30.05,SSE,163,6.0,6.0,61,0.00,,,0.00,Wunderground v.1.15,2013-11-05 16:01:00,
2013-11-05 11:02:00,82.3,67.5,30.05,SSE,163,6.0,6.0,61,0.00,,,0.00,Wunderground v.1.15,2013-11-05 16:02:00,
2013-11-05 11:03:00,82.4,67.6,30.05,South,181,6.0,6.0,61,0.00,,,0.00,Wunderground v.1.15,2013-11-05 16:03:00,
2013-11-05 11:07:00,82.4,67.1,30.04,SSW,195,5.0,9.0,60,0.00,,,0.00,Wunderground v.1.15,2013-11-05 16:07:00,
2013-11-05 11:08:00,82.4,67.1,30.05,South,169,6.0,9.0,60,0.00,,,0.00,Wunderground v.1.15,2013-11-05 16:08:00,
2013-11-05 11:09:00,82.3,67.0,30.04,SSE,153,6.0,10.0,60,0.00,,,0.00,Wunderground v.1.15,2013-11-05 16:09:00,
2013-11-05 11:12:00,82.2,67.4,30.04,South,191,7.0,7.0,61,0.00,,,0.00,Wunderground v.1.15,2013-11-05 16:12:00,
2013-11-05 11:13:00,82.1,67.3,30.04,SSE,159,7.0,10.0,61,0.00,,,0.00,Wunderground v.1.15,2013-11-05 16:13:00,
2013-11-05 11:14:00,82.0,67.7,30.04,SSE,158,8.0,10.0,62,0.00,,,0.00,Wunderground v.1.15,2013-11-05 16:14:00,
2013-11-05 11:15:00,82.0,67.7,30.04,SSW,195,8.0,10.0,62,0.00,,,0.00,Wunderground v.1.15,2013-11-05 16:15:00,
2013-11-05 11:19:00,82.1,67.8,30.04,SSE,158,7.0,10.0,62,0.00,,,0.00,Wunderground v.1.15,2013-11-05 16:19:00,
2013-11-05 11:20:00,82.0,68.2,30.04,SSE,156,6.0,11.0,63,0.00,,,0.00,Wunderground v.1.15,2013-11-05 16:20:00,
2013-11-05 11:22:00,82.0,68.2,30.04,SSE,162,6.0,11.0,63,0.00,,,0.00,Wunderground v.1.15,2013-11-05 16:22:00,
2013-11-05 11:23:00,82.0,67.7,30.04,West,271,6.0,11.0,62,0.00,,,0.00,Wunderground v.1.15,2013-11-05 16:23:00,
2013-11-05 11:24:00,82.1,68.3,30.04,South,179,6.0,11.0,63,0.00,,,0.00,Wunderground v.1.15,2013-11-05 16:24:00,
2013-11-05 11:26:00,82.1,67.3,30.04,South,175,6.0,11.0,61,0.00,,,0.00,Wunderground v.1.15,2013-11-05 16:26:00,
2013-11-05 11:29:00,82.1,67.3,30.04,SW,236,6.0,13.0,61,0.00,,,0.00,Wunderground v.1.15,2013-11-05 16:29:00,
2013-11-05 11:32:00,82.0,67.2,30.04,SSE,163,7.0,18.0,61,0.00,,,0.00,Wunderground v.1.15,2013-11-05 16:32:00,
2013-11-05 11:33:00,82.0,67.7,30.04,SW,221,7.0,18.0,62,0.00,,,0.00,Wunderground v.1.15,2013-11-05 16:33:00,
2013-11-05 11:34:00,82.1,67.8,30.04,South,169,7.0,18.0,62,0.00,,,0.00,Wunderground v.1.15,2013-11-05 16:34:00,
2013-11-05 11:35:00,82.1,67.3,30.04,SSE,153,7.0,18.0,61,0.00,,,0.00,Wunderground v.1.15,2013-11-05 16:35:00,
2013-11-05 11:40:00,82.1,66.8,30.04,SSE,156,7.0,18.0,60,0.00,,,0.00,Wunderground v.1.15,2013-11-05 16:40:00,
2013-11-05 11:41:00,82.1,67.3,30.04,SSE,162,7.0,18.0,61,0.00,,,0.00,Wunderground v.1.15,2013-11-05 16:41:00,
2013-11-05 11:42:00,82.0,67.2,30.03,SSE,155,7.0,18.0,61,0.00,,,0.00,Wunderground v.1.15,2013-11-05 16:42:00,
2013-11-05 11:43:00,82.1,67.8,30.03,South,186,7.0,18.0,62,0.00,,,0.00,Wunderground v.1.15,2013-11-05 16:43:00,
2013-11-05 11:45:00,82.1,67.8,30.03,SSE,152,7.0,18.0,62,0.00,,,0.00,Wunderground v.1.15,2013-11-05 16:45:00,
2013-11-05 11:46:00,82.2,67.9,30.03,SSE,165,6.0,18.0,62,0.00,,,0.00,Wunderground v.1.15,2013-11-05 16:46:00,
2013-11-05 11:48:00,82.2,68.3,30.03,WSW,246,6.0,18.0,63,0.00,,,0.00,Wunderground v.1.15,2013-11-05 16:48:00,
2013-11-05 11:51:00,82.3,68.0,30.03,South,169,6.0,18.0,62,0.00,,,0.00,Wunderground v.1.15,2013-11-05 16:51:00,
2013-11-05 11:52:00,82.3,67.5,30.03,SE,137,6.0,18.0,61,0.00,,,0.00,Wunderground v.1.15,2013-11-05 16:52:00,
2013-11-05 11:54:00,82.3,68.0,30.03,SSE,157,7.0,18.0,62,0.00,,,0.00,Wunderground v.1.15,2013-11-05 16:54:00,
2013-11-05 11:57:00,82.4,68.1,30.03,South,178,7.0,18.0,62,0.00,,,0.00,Wunderground v.1.15,2013-11-05 16:57:00,
2013-11-05 11:58:00,82.4,68.1,30.03,SSE,163,7.0,18.0,62,0.00,,,0.00,Wunderground v.1.15,2013-11-05 16:58:00,
2013-11-05 11:59:00,82.4,67.6,30.03,SW,219,7.0,18.0,61,0.00,,,0.00,Wunderground v.1.15,2013-11-05 16:59:00,
2013-11-05 12:01:00,82.3,67.5,30.03,SSE,161,8.0,10.0,61,0.00,,,0.00,Wunderground v.1.15,2013-11-05 17:01:00,
2013-11-05 12:04:00,82.3,68.0,30.03,ESE,121,8.0,10.0,62,0.00,,,0.00,Wunderground v.1.15,2013-11-05 17:04:00,
2013-11-05 12:07:00,82.3,68.4,30.03,ESE,106,7.0,10.0,63,0.00,,,0.00,Wunderground v.1.15,2013-11-05 17:07:00,
2013-11-05 12:08:00,82.3,68.4,30.03,SW,232,7.0,10.0,63,0.00,,,0.00,Wunderground v.1.15,2013-11-05 17:08:00,
2013-11-05 12:10:00,82.3,68.9,30.03,ESE,116,6.0,8.0,64,0.00,,,0.00,Wunderground v.1.15,2013-11-05 17:10:00,
2013-11-05 12:13:00,82.3,68.4,30.03,SE,145,5.0,10.0,63,0.00,,,0.00,Wunderground v.1.15,2013-11-05 17:13:00,
2013-11-05 12:14:00,82.2,68.3,30.02,ESE,123,6.0,10.0,63,0.00,,,0.00,Wunderground v.1.15,2013-11-05 17:14:00,
2013-11-05 12:15:00,82.2,68.3,30.02,SSE,155,5.0,10.0,63,0.00,,,0.00,Wunderground v.1.15,2013-11-05 17:15:00,
2013-11-05 12:18:00,82.3,68.9,30.02,SE,145,6.0,10.0,64,0.00,,,0.00,Wunderground v.1.15,2013-11-05 17:18:00,
2013-11-05 12:19:00,82.3,68.4,30.02,South,184,5.0,10.0,63,0.00,,,0.00,Wunderground v.1.15,2013-11-05 17:19:00,
2013-11-05 12:24:00,82.3,68.4,30.02,East,93,5.0,9.0,63,0.00,,,0.00,Wunderground v.1.15,2013-11-05 17:24:00,
2013-11-05 12:25:00,82.3,68.9,30.02,SSE,148,5.0,9.0,64,0.00,,,0.00,Wunderground v.1.15,2013-11-05 17:25:00,
2013-11-05 12:27:00,82.2,68.8,30.02,East,85,5.0,10.0,64,0.00,,,0.00,Wunderground v.1.15,2013-11-05 17:27:00,
2013-11-05 12:30:00,82.1,69.2,30.02,SE,134,5.0,5.0,65,0.00,,,0.00,Wunderground v.1.15,2013-11-05 17:30:00,
2013-11-05 12:31:00,82.0,69.1,30.02,SSE,157,5.0,18.0,65,0.00,,,0.00,Wunderground v.1.15,2013-11-05 17:31:00,
2013-11-05 12:34:00,82.0,69.1,30.02,ESE,115,5.0,18.0,65,0.00,,,0.00,Wunderground v.1.15,2013-11-05 17:34:00,
2013-11-05 12:36:00,81.9,68.5,30.02,ESE,116,6.0,18.0,64,0.00,,,0.00,Wunderground v.1.15,2013-11-05 17:36:00,
2013-11-05 12:37:00,81.8,68.9,30.02,East,84,5.0,18.0,65,0.00,,,0.00,Wunderground v.1.15,2013-11-05 17:37:00,
2013-11-05 12:38:00,81.8,68.9,30.02,ESE,107,5.0,18.0,65,0.00,,,0.00,Wunderground v.1.15,2013-11-05 17:38:00,
2013-11-05 12:43:00,81.8,68.9,30.02,SSE,152,6.0,18.0,65,0.00,,,0.00,Wunderground v.1.15,2013-11-05 17:43:00,
2013-11-05 12:44:00,81.8,68.9,30.02,ESE,122,6.0,18.0,65,0.00,,,0.00,Wunderground v.1.15,2013-11-05 17:44:00,
2013-11-05 12:45:00,81.8,68.9,30.02,SSE,147,6.0,18.0,65,0.00,,,0.00,Wunderground v.1.15,2013-11-05 17:45:00,
2013-11-05 12:49:00,81.7,68.8,30.02,ESE,113,6.0,18.0,65,0.00,,,0.00,Wunderground v.1.15,2013-11-05 17:49:00,
2013-11-05 12:50:00,81.7,68.8,30.02,SE,131,6.0,6.0,65,0.00,,,0.00,Wunderground v.1.15,2013-11-05 17:50:00,
2013-11-05 12:51:00,81.7,69.2,30.02,SE,138,6.0,18.0,66,0.00,,,0.00,Wunderground v.1.15,2013-11-05 17:51:00,
2013-11-05 12:52:00,81.7,69.2,30.01,SE,141,5.0,18.0,66,0.00,,,0.00,Wunderground v.1.15,2013-11-05 17:52:00,
2013-11-05 12:54:00,81.8,68.9,30.02,ESE,110,5.0,18.0,65,0.00,,,0.00,Wunderground v.1.15,2013-11-05 17:54:00,
2013-11-05 12:57:00,81.7,68.8,30.01,South,177,5.0,18.0,65,0.00,,,0.00,Wunderground v.1.15,2013-11-05 17:57:00,
2013-11-05 12:58:00,81.7,68.8,30.01,ESE,120,5.0,18.0,65,0.00,,,0.00,Wunderground v.1.15,2013-11-05 17:58:00,
2013-11-05 13:00:00,81.7,68.8,30.01,NE,39,5.0,5.0,65,0.00,,,0.00,Wunderground v.1.15,2013-11-05 18:00:00,
2013-11-05 13:01:00,81.6,68.7,30.01,SE,141,5.0,5.0,65,0.00,,,0.00,Wunderground v.1.15,2013-11-05 18:01:00,
2013-11-05 13:03:00,81.6,68.7,30.01,SSW,209,6.0,8.0,65,0.00,,,0.00,Wunderground v.1.15,2013-11-05 18:03:00,
2013-11-05 13:04:00,81.7,68.8,30.01,SW,214,6.0,8.0,65,0.00,,,0.00,Wunderground v.1.15,2013-11-05 18:04:00,
2013-11-05 13:05:00,81.7,68.8,30.01,ESE,104,6.0,8.0,65,0.00,,,0.00,Wunderground v.1.15,2013-11-05 18:05:00,
2013-11-05 13:06:00,81.7,68.8,30.01,SE,124,6.0,9.0,65,0.00,,,0.00,Wunderground v.1.15,2013-11-05 18:06:00,
2013-11-05 13:09:00,81.7,68.8,30.01,SE,129,7.0,9.0,65,0.00,,,0.00,Wunderground v.1.15,2013-11-05 18:09:00,
2013-11-05 13:10:00,81.7,68.8,30.01,SSE,149,6.0,6.0,65,0.00,,,0.00,Wunderground v.1.15,2013-11-05 18:10:00,
2013-11-05 13:15:00,81.8,68.9,30.01,SE,129,6.0,7.0,65,0.00,,,0.00,Wunderground v.1.15,2013-11-05 18:15:00,
2013-11-05 13:16:00,81.8,68.9,30.01,ESE,113,6.0,7.0,65,0.00,,,0.00,Wunderground v.1.15,2013-11-05 18:16:00,
2013-11-05 13:18:00,81.8,68.9,30.01,South,176,5.0,7.0,65,0.00,,,0.00,Wunderground v.1.15,2013-11-05 18:18:00,
2013-11-05 13:19:00,81.8,68.9,30.01,ESE,117,5.0,11.0,65,0.00,,,0.00,Wunderground v.1.15,2013-11-05 18:19:00,
2013-11-05 13:20:00,81.7,68.8,30.01,ESE,108,5.0,9.0,65,0.00,,,0.00,Wunderground v.1.15,2013-11-05 18:20:00,
2013-11-05 13:22:00,81.6,68.7,30.01,SE,142,5.0,9.0,65,0.00,,,0.00,Wunderground v.1.15,2013-11-05 18:22:00,
2013-11-05 13:24:00,81.7,69.2,30.01,ESE,122,5.0,9.0,66,0.00,,,0.00,Wunderground v.1.15,2013-11-05 18:24:00,
2013-11-05 13:27:00,81.7,69.2,30.01,SSE,148,5.0,9.0,66,0.00,,,0.00,Wunderground v.1.15,2013-11-05 18:27:00,
2013-11-05 13:28:00,81.6,69.1,30.01,SE,129,5.0,9.0,66,0.00,,,0.00,Wunderground v.1.15,2013-11-05 18:28:00,
2013-11-05 13:29:00,81.6,69.6,30.01,SSE,156,5.0,9.0,67,0.00,,,0.00,Wunderground v.1.15,2013-11-05 18:29:00,
2013-11-05 13:32:00,81.6,69.6,30.01,ESE,115,5.0,13.0,67,0.00,,,0.00,Wunderground v.1.15,2013-11-05 18:32:00,
2013-11-05 13:37:00,81.4,69.8,30.01,SE,132,5.0,13.0,68,0.00,,,0.00,Wunderground v.1.15,2013-11-05 18:37:00,
2013-11-05 13:38:00,81.4,69.8,30.01,ESE,108,4.0,13.0,68,0.00,,,0.00,Wunderground v.1.15,2013-11-05 18:38:00,
2013-11-05 13:40:00,81.4,69.8,30.01,SE,139,4.0,13.0,68,0.00,,,0.00,Wunderground v.1.15,2013-11-05 18:40:00,
2013-11-05 13:41:00,81.3,69.7,30.01,NE,51,4.0,13.0,68,0.00,,,0.00,Wunderground v.1.15,2013-11-05 18:41:00,
2013-11-05 13:42:00,81.3,69.7,30.00,ESE,123,4.0,13.0,68,0.00,,,0.00,Wunderground v.1.15,2013-11-05 18:42:00,
2013-11-05 13:45:00,81.1,69.5,30.01,SE,132,4.0,13.0,68,0.00,,,0.00,Wunderground v.1.15,2013-11-05 18:45:00,
2013-11-05 13:48:00,81.0,69.9,30.01,SSE,168,4.0,13.0,69,0.00,,,0.00,Wunderground v.1.15,2013-11-05 18:48:00,
2013-11-05 13:49:00,81.1,70.0,30.00,ESE,111,4.0,13.0,69,0.00,,,0.00,Wunderground v.1.15,2013-11-05 18:49:00,
2013-11-05 13:54:00,81.0,69.9,30.00,South,172,4.0,13.0,69,0.00,,,0.00,Wunderground v.1.15,2013-11-05 18:54:00,
2013-11-05 13:55:00,81.0,69.9,30.00,ESE,113,4.0,13.0,69,0.00,,,0.00,Wunderground v.1.15,2013-11-05 18:55:00,
2013-11-05 13:59:00,80.9,69.8,30.00,SE,141,4.0,13.0,69,0.00,,,0.00,Wunderground v.1.15,2013-11-05 18:59:00,
2013-11-05 14:00:00,80.8,69.7,30.00,South,170,4.0,7.0,69,0.00,,,0.00,Wunderground v.1.15,2013-11-05 19:00:00,
2013-11-05 14:02:00,80.8,70.1,30.00,ESE,108,5.0,7.0,70,0.00,,,0.00,Wunderground v.1.15,2013-11-05 19:02:00,
2013-11-05 14:04:00,80.9,70.2,30.01,NNW,342,5.0,7.0,70,0.00,,,0.00,Wunderground v.1.15,2013-11-05 19:04:00,
2013-11-05 14:05:00,80.8,70.5,30.01,SSE,150,5.0,7.0,71,0.00,,,0.00,Wunderground v.1.15,2013-11-05 19:05:00,
2013-11-05 14:07:00,80.6,71.1,30.00,South,191,4.0,7.0,73,0.00,,,0.00,Wunderground v.1.15,2013-11-05 19:07:00,
2013-11-05 14:10:00,79.8,71.6,30.00,South,171,4.0,4.0,76,0.00,,,0.00,Wunderground v.1.15,2013-11-05 19:10:00,
2013-11-05 14:11:00,79.6,71.4,30.00,SE,143,4.0,4.0,76,0.00,,,0.00,Wunderground v.1.15,2013-11-05 19:11:00,
2013-11-05 14:14:00,79.0,71.6,30.00,SSW,205,3.0,4.0,78,0.00,,,0.00,Wunderground v.1.15,2013-11-05 19:14:00,
2013-11-05 14:15:00,78.9,71.5,30.00,SE,134,3.0,6.0,78,0.00,,,0.00,Wunderground v.1.15,2013-11-05 19:15:00,
2013-11-05 14:16:00,78.8,71.4,30.00,South,190,3.0,6.0,78,0.00,,,0.00,Wunderground v.1.15,2013-11-05 19:16:00,
2013-11-05 14:17:00,78.7,71.3,30.00,SSE,160,3.0,6.0,78,0.00,,,0.00,Wunderground v.1.15,2013-11-05 19:17:00,
2013-11-05 14:19:00,78.6,71.5,30.00,SSE,165,4.0,6.0,79,0.00,,,0.00,Wunderground v.1.15,2013-11-05 19:19:00,
2013-11-05 14:20:00,78.5,71.4,30.00,SSE,165,4.0,4.0,79,0.00,,,0.00,Wunderground v.1.15,2013-11-05 19:20:00,
2013-11-05 14:22:00,78.3,71.6,30.00,SSE,168,3.0,5.0,80,0.00,,,0.00,Wunderground v.1.15,2013-11-05 19:22:00,
2013-11-05 14:26:00,78.0,71.3,30.00,SE,136,3.0,6.0,80,0.00,,,0.00,Wunderground v.1.15,2013-11-05 19:26:00,
2013-11-05 14:28:00,77.8,71.1,30.00,SSE,162,4.0,6.0,80,0.00,,,0.00,Wunderground v.1.15,2013-11-05 19:28:00,
2013-11-05 14:29:00,77.8,71.5,30.00,South,191,4.0,6.0,81,0.00,,,0.00,Wunderground v.1.15,2013-11-05 19:29:00,
2013-11-05 14:30:00,77.8,71.5,30.00,SW,214,4.0,4.0,81,0.00,,,0.00,Wunderground v.1.15,2013-11-05 19:30:00,
2013-11-05 14:32:00,77.9,71.2,30.00,SE,139,4.0,13.0,80,0.00,,,0.00,Wunderground v.1.15,2013-11-05 19:32:00,
2013-11-05 14:33:00,77.9,71.2,30.00,South,174,4.0,13.0,80,0.00,,,0.00,Wunderground v.1.15,2013-11-05 19:33:00,
2013-11-05 14:36:00,78.3,71.6,30.00,SSW,213,3.0,13.0,80,0.00,,,0.00,Wunderground v.1.15,2013-11-05 19:36:00,
2013-11-05 14:37:00,78.4,71.7,30.00,SW,214,3.0,13.0,80,0.00,,,0.00,Wunderground v.1.15,2013-11-05 19:37:00,
2013-11-05 14:41:00,78.6,71.5,30.00,SE,131,3.0,13.0,79,0.00,,,0.00,Wunderground v.1.15,2013-11-05 19:41:00,
2013-11-05 14:42:00,78.6,71.5,30.00,South,186,3.0,13.0,79,0.00,,,0.00,Wunderground v.1.15,2013-11-05 19:42:00,
2013-11-05 14:43:00,78.5,71.4,30.00,SSW,199,3.0,13.0,79,0.00,,,0.00,Wunderground v.1.15,2013-11-05 19:43:00,
2013-11-05 14:44:00,78.4,71.3,30.00,North,5,3.0,13.0,79,0.00,,,0.00,Wunderground v.1.15,2013-11-05 19:44:00,
2013-11-05 14:45:00,78.3,71.2,30.00,SE,139,4.0,13.0,79,0.00,,,0.00,Wunderground v.1.15,2013-11-05 19:45:00,
2013-11-05 14:48:00,78.1,71.4,30.00,SE,144,5.0,13.0,80,0.00,,,0.00,Wunderground v.1.15,2013-11-05 19:48:00,
2013-11-05 14:49:00,78.0,71.3,30.00,South,188,5.0,13.0,80,0.00,,,0.00,Wunderground v.1.15,2013-11-05 19:49:00,
2013-11-05 14:50:00,78.0,71.3,30.00,SW,217,5.0,5.0,80,0.00,,,0.00,Wunderground v.1.15,2013-11-05 19:50:00,
2013-11-05 14:53:00,78.1,71.8,29.99,SE,131,4.0,13.0,81,0.00,,,0.00,Wunderground v.1.15,2013-11-05 19:53:00,
2013-11-05 14:54:00,78.1,71.8,29.99,South,184,4.0,13.0,81,0.00,,,0.00,Wunderground v.1.15,2013-11-05 19:54:00,
2013-11-05 14:55:00,78.1,71.8,29.99,South,169,4.0,13.0,81,0.00,,,0.00,Wunderground v.1.15,2013-11-05 19:55:00,
2013-11-05 14:56:00,78.1,71.4,29.99,South,179,4.0,13.0,80,0.00,,,0.00,Wunderground v.1.15,2013-11-05 19:56:00,
2013-11-05 14:59:00,78.2,71.5,29.99,SE,131,4.0,13.0,80,0.00,,,0.00,Wunderground v.1.15,2013-11-05 19:59:00,
2013-11-05 15:00:00,78.2,71.5,29.99,SE,125,4.0,5.0,80,0.00,,,0.00,Wunderground v.1.15,2013-11-05 20:00:00,
2013-11-05 15:04:00,78.3,71.2,29.99,ESE,118,4.0,5.0,79,0.00,,,0.00,Wunderground v.1.15,2013-11-05 20:04:00,
2013-11-05 15:05:00,78.3,71.2,29.99,SE,132,4.0,5.0,79,0.00,,,0.00,Wunderground v.1.15,2013-11-05 20:05:00,
2013-11-05 15:06:00,78.4,71.3,29.99,SSE,154,3.0,5.0,79,0.00,,,0.00,Wunderground v.1.15,2013-11-05 20:06:00,
2013-11-05 15:08:00,78.5,71.4,29.99,South,188,3.0,5.0,79,0.00,,,0.00,Wunderground v.1.15,2013-11-05 20:08:00,
2013-11-05 15:09:00,78.6,71.2,29.99,SSE,163,3.0,5.0,78,0.00,,,0.00,Wunderground v.1.15,2013-11-05 20:09:00,
2013-11-05 15:11:00,78.6,71.5,29.99,ESE,118,2.0,3.0,79,0.00,,,0.00,Wunderground v.1.15,2013-11-05 20:11:00,
2013-11-05 15:15:00,78.6,71.5,29.99,SSW,200,3.0,9.0,79,0.00,,,0.00,Wunderground v.1.15,2013-11-05 20:15:00,
2013-11-05 15:17:00,78.6,71.5,29.99,South,179,3.0,9.0,79,0.00,,,0.00,Wunderground v.1.15,2013-11-05 20:17:00,
2013-11-05 15:20:00,78.6,71.5,29.99,South,169,3.0,3.0,79,0.00,,,0.00,Wunderground v.1.15,2013-11-05 20:20:00,
2013-11-05 15:24:00,78.6,71.5,29.99,South,186,3.0,5.0,79,0.00,,,0.00,Wunderground v.1.15,2013-11-05 20:24:00,
2013-11-05 15:25:00,78.6,71.5,30.00,ESE,119,3.0,5.0,79,0.00,,,0.00,Wunderground v.1.15,2013-11-05 20:25:00,
2013-11-05 15:27:00,78.5,71.4,30.00,SSE,154,3.0,8.0,79,0.00,,,0.00,Wunderground v.1.15,2013-11-05 20:27:00,
2013-11-05 15:31:00,78.5,71.8,29.99,ESE,122,3.0,13.0,80,0.00,,,0.00,Wunderground v.1.15,2013-11-05 20:31:00,
2013-11-05 15:32:00,78.5,71.4,29.99,SW,220,3.0,13.0,79,0.00,,,0.00,Wunderground v.1.15,2013-11-05 20:32:00,
2013-11-05 15:35:00,78.6,71.5,29.99,SSW,193,3.0,13.0,79,0.00,,,0.00,Wunderground v.1.15,2013-11-05 20:35:00,
2013-11-05 15:37:00,78.7,71.6,29.99,South,191,3.0,13.0,79,0.00,,,0.00,Wunderground v.1.15,2013-11-05 20:37:00,
2013-11-05 15:38:00,78.7,71.6,29.99,SSE,163,2.0,13.0,79,0.00,,,0.00,Wunderground v.1.15,2013-11-05 20:38:00,
2013-11-05 15:40:00,78.8,71.7,29.99,SSE,164,2.0,2.0,79,0.00,,,0.00,Wunderground v.1.15,2013-11-05 20:40:00,
2013-11-05 15:41:00,78.8,71.7,29.99,SE,127,2.0,5.0,79,0.00,,,0.00,Wunderground v.1.15,2013-11-05 20:41:00,
2013-11-05 15:43:00,78.8,71.7,29.99,SSW,192,2.0,13.0,79,0.00,,,0.00,Wunderground v.1.15,2013-11-05 20:43:00,
2013-11-05 15:44:00,78.9,71.8,29.99,South,175,3.0,13.0,79,0.00,,,0.00,Wunderground v.1.15,2013-11-05 20:44:00,
2013-11-05 15:45:00,78.9,71.8,29.99,South,188,3.0,13.0,79,0.00,,,0.00,Wunderground v.1.15,2013-11-05 20:45:00,
2013-11-05 15:47:00,78.9,71.8,29.99,SE,128,3.0,13.0,79,0.00,,,0.00,Wunderground v.1.15,2013-11-05 20:47:00,
2013-11-05 15:48:00,78.9,71.8,29.99,SE,133,3.0,13.0,79,0.00,,,0.00,Wunderground v.1.15,2013-11-05 20:48:00,
2013-11-05 15:50:00,78.9,71.8,29.99,SSE,155,4.0,13.0,79,0.00,,,0.00,Wunderground v.1.15,2013-11-05 20:50:00,
2013-11-05 15:52:00,78.9,71.5,29.99,South,172,4.0,13.0,78,0.00,,,0.00,Wunderground v.1.15,2013-11-05 20:52:00,
2013-11-05 15:55:00,78.9,71.8,29.99,ESE,109,4.0,13.0,79,0.00,,,0.00,Wunderground v.1.15,2013-11-05 20:55:00,
2013-11-05 15:56:00,78.9,71.8,29.99,South,181,3.0,13.0,79,0.00,,,0.00,Wunderground v.1.15,2013-11-05 20:56:00,
2013-11-05 15:58:00,79.0,71.6,29.99,SE,134,3.0,13.0,78,0.00,,,0.00,Wunderground v.1.15,2013-11-05 20:58:00,
2013-11-05 15:59:00,79.0,71.6,29.99,South,178,3.0,13.0,78,0.00,,,0.00,Wunderground v.1.15,2013-11-05 20:59:00,
2013-11-05 16:01:00,79.1,71.6,29.99,WSW,237,3.0,4.0,78,0.00,,,0.00,Wunderground v.1.15,2013-11-05 21:01:00,
2013-11-05 16:04:00,79.2,71.4,30.00,SE,133,3.0,4.0,77,0.00,,,0.00,Wunderground v.1.15,2013-11-05 21:04:00,
2013-11-05 16:05:00,79.3,71.5,29.99,ESE,106,3.0,8.0,77,0.00,,,0.00,Wunderground v.1.15,2013-11-05 21:05:00,
2013-11-05 16:06:00,79.3,71.5,30.00,SSE,161,3.0,8.0,77,0.00,,,0.00,Wunderground v.1.15,2013-11-05 21:06:00,
2013-11-05 16:07:00,79.2,71.4,30.00,SE,131,3.0,8.0,77,0.00,,,0.00,Wunderground v.1.15,2013-11-05 21:07:00,
2013-11-05 16:08:00,79.2,72.1,30.00,SE,141,3.0,8.0,79,0.00,,,0.00,Wunderground v.1.15,2013-11-05 21:08:00,
2013-11-05 16:13:00,77.9,71.6,30.00,SSW,209,4.0,5.0,81,0.00,,,0.01,Wunderground v.1.15,2013-11-05 21:13:00,
2013-11-05 16:14:00,77.7,71.8,29.99,South,174,4.0,5.0,82,0.00,,,0.01,Wunderground v.1.15,2013-11-05 21:14:00,
2013-11-05 16:15:00,77.5,71.6,30.00,SW,224,4.0,5.0,82,0.00,,,0.01,Wunderground v.1.15,2013-11-05 21:15:00,
2013-11-05 16:16:00,77.4,71.5,30.00,SE,131,4.0,5.0,82,0.00,,,0.01,Wunderground v.1.15,2013-11-05 21:16:00,
2013-11-05 16:18:00,77.1,71.5,29.99,SSE,148,4.0,5.0,83,0.07,,,0.02,Wunderground v.1.15,2013-11-05 21:18:00,
2013-11-05 16:19:00,77.1,71.5,29.99,ESE,107,4.0,5.0,83,0.07,,,0.02,Wunderground v.1.15,2013-11-05 21:19:00,
2013-11-05 16:20:00,77.0,71.4,30.00,South,184,4.0,4.0,83,0.07,,,0.02,Wunderground v.1.15,2013-11-05 21:20:00,
2013-11-05 16:21:00,76.9,71.7,29.99,SE,126,4.0,4.0,84,0.07,,,0.02,Wunderground v.1.15,2013-11-05 21:21:00,
2013-11-05 16:24:00,76.7,71.8,29.99,SSW,196,4.0,4.0,85,0.07,,,0.02,Wunderground v.1.15,2013-11-05 21:24:00,
2013-11-05 16:25:00,76.7,71.8,29.99,ESE,122,3.0,4.0,85,0.07,,,0.02,Wunderground v.1.15,2013-11-05 21:25:00,
2013-11-05 16:27:00,76.7,71.8,29.99,South,184,3.0,7.0,85,0.06,,,0.02,Wunderground v.1.15,2013-11-05 21:27:00,
2013-11-05 16:28:00,76.7,71.5,29.99,SE,124,3.0,7.0,84,0.05,,,0.02,Wunderground v.1.15,2013-11-05 21:28:00,
2013-11-05 16:31:00,76.8,71.9,29.99,South,191,4.0,9.0,85,0.04,,,0.02,Wunderground v.1.15,2013-11-05 21:31:00,
2013-11-05 16:32:00,76.9,72.0,30.00,South,183,4.0,9.0,85,0.04,,,0.02,Wunderground v.1.15,2013-11-05 21:32:00,
2013-11-05 16:34:00,76.9,72.0,29.99,ESE,104,4.0,10.0,85,0.00,,,0.02,Wunderground v.1.15,2013-11-05 21:34:00,
2013-11-05 16:35:00,77.0,71.8,30.00,ESE,120,4.0,10.0,84,0.00,,,0.02,Wunderground v.1.15,2013-11-05 21:35:00,
2013-11-05 16:37:00,77.0,71.4,30.00,SSE,148,4.0,10.0,83,0.00,,,0.02,Wunderground v.1.15,2013-11-05 21:37:00,
2013-11-05 16:38:00,77.1,71.5,30.00,SE,146,4.0,10.0,83,0.00,,,0.02,Wunderground v.1.15,2013-11-05 21:38:00,
2013-11-05 16:39:00,77.1,71.5,30.00,SSE,165,4.0,10.0,83,0.00,,,0.02,Wunderground v.1.15,2013-11-05 21:39:00,
2013-11-05 16:41:00,77.2,71.6,30.00,South,182,4.0,9.0,83,0.00,,,0.02,Wunderground v.1.15,2013-11-05 21:41:00,
2013-11-05 16:43:00,77.2,71.3,30.00,South,172,5.0,9.0,82,0.00,,,0.02,Wunderground v.1.15,2013-11-05 21:43:00,
2013-11-05 16:44:00,77.2,70.9,30.00,SSW,195,5.0,9.0,81,0.00,,,0.02,Wunderground v.1.15,2013-11-05 21:44:00,
2013-11-05 16:45:00,77.2,70.9,30.00,SSE,158,4.0,9.0,81,0.00,,,0.02,Wunderground v.1.15,2013-11-05 21:45:00,
2013-11-05 16:49:00,77.3,71.0,30.00,SSE,156,4.0,9.0,81,0.00,,,0.02,Wunderground v.1.15,2013-11-05 21:49:00,
2013-11-05 16:50:00,77.3,70.6,30.00,SSE,163,4.0,4.0,80,0.00,,,0.02,Wunderground v.1.15,2013-11-05 21:50:00,
2013-11-05 16:51:00,77.3,70.6,30.00,ESE,119,4.0,6.0,80,0.00,,,0.02,Wunderground v.1.15,2013-11-05 21:51:00,
2013-11-05 16:56:00,77.4,70.4,30.00,SE,146,4.0,9.0,79,0.00,,,0.02,Wunderground v.1.15,2013-11-05 21:56:00,
2013-11-05 16:57:00,77.4,70.4,30.00,ENE,72,3.0,9.0,79,0.00,,,0.02,Wunderground v.1.15,2013-11-05 21:57:00,
2013-11-05 16:58:00,77.4,70.4,30.00,SW,217,3.0,9.0,79,0.00,,,0.02,Wunderground v.1.15,2013-11-05 21:58:00,
2013-11-05 17:02:00,77.6,70.6,30.00,SSE,167,4.0,4.0,79,0.00,,,0.02,Wunderground v.1.15,2013-11-05 22:02:00,
2013-11-05 17:03:00,77.6,70.6,30.00,ESE,122,4.0,6.0,79,0.00,,,0.02,Wunderground v.1.15,2013-11-05 22:03:00,
2013-11-05 17:08:00,77.8,70.8,30.00,ESE,117,4.0,6.0,79,0.00,,,0.02,Wunderground v.1.15,2013-11-05 22:08:00,
2013-11-05 17:09:00,77.9,70.9,30.00,SE,128,4.0,6.0,79,0.00,,,0.02,Wunderground v.1.15,2013-11-05 22:09:00,
2013-11-05 17:10:00,77.9,70.9,30.00,SE,136,4.0,5.0,79,0.00,,,0.02,Wunderground v.1.15,2013-11-05 22:10:00,
2013-11-05 17:12:00,77.9,70.9,30.00,SE,146,4.0,5.0,79,0.00,,,0.02,Wunderground v.1.15,2013-11-05 22:12:00,
2013-11-05 17:15:00,78.0,71.0,30.00,South,183,4.0,5.0,79,0.00,,,0.02,Wunderground v.1.15,2013-11-05 22:15:00,
2013-11-05 17:17:00,78.0,71.3,30.00,ENE,60,3.0,6.0,80,0.00,,,0.02,Wunderground v.1.15,2013-11-05 22:17:00,
2013-11-05 17:18:00,78.0,71.3,30.00,South,177,3.0,6.0,80,0.00,,,0.02,Wunderground v.1.15,2013-11-05 22:18:00,
2013-11-05 17:21:00,78.1,70.7,30.00,SE,141,3.0,8.0,78,0.00,,,0.02,Wunderground v.1.15,2013-11-05 22:21:00,
2013-11-05 17:25:00,78.3,70.5,30.00,SE,143,3.0,8.0,77,0.00,,,0.02,Wunderground v.1.15,2013-11-05 22:25:00,
2013-11-05 17:26:00,78.4,70.6,30.00,SE,139,3.0,8.0,77,0.00,,,0.02,Wunderground v.1.15,2013-11-05 22:26:00,
2013-11-05 17:28:00,78.4,70.6,30.00,South,169,4.0,8.0,77,0.00,,,0.02,Wunderground v.1.15,2013-11-05 22:28:00,
2013-11-05 17:29:00,78.5,70.7,30.00,SSW,194,3.0,8.0,77,0.00,,,0.02,Wunderground v.1.15,2013-11-05 22:29:00,
2013-11-05 17:31:00,78.5,70.7,30.00,SSE,149,3.0,12.0,77,0.00,,,0.02,Wunderground v.1.15,2013-11-05 22:31:00,
2013-11-05 17:32:00,78.5,70.7,30.00,SE,139,3.0,12.0,77,0.00,,,0.02,Wunderground v.1.15,2013-11-05 22:32:00,
2013-11-05 17:35:00,78.6,70.8,30.00,SSE,148,3.0,12.0,77,0.00,,,0.02,Wunderground v.1.15,2013-11-05 22:35:00,
2013-11-05 17:37:00,78.7,70.9,30.00,SSE,167,3.0,12.0,77,0.00,,,0.02,Wunderground v.1.15,2013-11-05 22:37:00,
2013-11-05 17:38:00,78.7,70.9,30.00,SSE,153,3.0,12.0,77,0.00,,,0.02,Wunderground v.1.15,2013-11-05 22:38:00,
2013-11-05 17:39:00,78.8,71.0,30.00,ESE,108,3.0,12.0,77,0.00,,,0.02,Wunderground v.1.15,2013-11-05 22:39:00,
2013-11-05 17:40:00,78.7,70.9,30.00,ESE,122,3.0,12.0,77,0.00,,,0.02,Wunderground v.1.15,2013-11-05 22:40:00,
2013-11-05 17:44:00,78.7,71.3,30.00,SE,130,3.0,12.0,78,0.00,,,0.02,Wunderground v.1.15,2013-11-05 22:44:00,
2013-11-05 17:45:00,78.7,71.3,30.00,SE,143,2.0,12.0,78,0.00,,,0.02,Wunderground v.1.15,2013-11-05 22:45:00,
2013-11-05 17:47:00,78.8,71.4,30.00,ESE,117,3.0,12.0,78,0.00,,,0.02,Wunderground v.1.15,2013-11-05 22:47:00,
2013-11-05 17:50:00,78.8,71.4,30.00,ESE,120,3.0,12.0,78,0.00,,,0.02,Wunderground v.1.15,2013-11-05 22:50:00,
2013-11-05 17:51:00,78.8,71.4,30.00,ENE,63,3.0,12.0,78,0.00,,,0.02,Wunderground v.1.15,2013-11-05 22:51:00,
2013-11-05 17:52:00,78.8,71.4,30.00,NE,41,3.0,12.0,78,0.00,,,0.02,Wunderground v.1.15,2013-11-05 22:52:00,
2013-11-05 17:56:00,78.7,71.6,30.00,SSE,165,3.0,12.0,79,0.00,,,0.02,Wunderground v.1.15,2013-11-05 22:56:00,
2013-11-05 17:57:00,78.8,71.7,30.00,SE,127,3.0,12.0,79,0.00,,,0.02,Wunderground v.1.15,2013-11-05 22:57:00,
2013-11-05 17:58:00,78.8,71.7,30.00,East,79,3.0,12.0,79,0.00,,,0.02,Wunderground v.1.15,2013-11-05 22:58:00,
2013-11-05 17:59:00,78.7,71.6,30.00,NNE,28,3.0,12.0,79,0.00,,,0.02,Wunderground v.1.15,2013-11-05 22:59:00,
2013-11-05 18:03:00,78.7,71.6,30.00,SSE,156,3.0,3.0,79,0.00,,,0.02,Wunderground v.1.15,2013-11-05 23:03:00,
2013-11-05 18:04:00,78.7,71.6,30.00,South,179,3.0,3.0,79,0.00,,,0.02,Wunderground v.1.15,2013-11-05 23:04:00,
2013-11-05 18:05:00,78.6,71.5,30.00,ESE,111,3.0,3.0,79,0.00,,,0.02,Wunderground v.1.15,2013-11-05 23:05:00,
2013-11-05 18:06:00,78.6,71.5,30.00,SE,136,3.0,6.0,79,0.00,,,0.02,Wunderground v.1.15,2013-11-05 23:06:00,
2013-11-05 18:09:00,78.7,71.3,30.00,SE,134,3.0,11.0,78,0.00,,,0.02,Wunderground v.1.15,2013-11-05 23:09:00,
2013-11-05 18:11:00,78.6,70.8,30.01,SSW,210,4.0,5.0,77,0.00,,,0.02,Wunderground v.1.15,2013-11-05 23:11:00,
2013-11-05 18:12:00,78.6,70.8,30.01,SSE,157,4.0,5.0,77,0.00,,,0.02,Wunderground v.1.15,2013-11-05 23:12:00,
2013-11-05 18:16:00,77.2,69.8,30.01,SSE,161,5.0,9.0,78,0.56,,,0.04,Wunderground v.1.15,2013-11-05 23:16:00,
2013-11-05 18:17:00,76.7,69.7,30.01,SE,124,5.0,9.0,79,0.70,,,0.05,Wunderground v.1.15,2013-11-05 23:17:00,
2013-11-05 18:19:00,75.9,70.0,30.01,SSE,167,5.0,9.0,82,0.45,,,0.06,Wunderground v.1.15,2013-11-05 23:19:00,
2013-11-05 18:24:00,74.5,70.0,30.01,SE,140,5.0,9.0,86,0.19,,,0.07,Wunderground v.1.15,2013-11-05 23:24:00,
2013-11-05 18:25:00,74.2,69.7,30.01,ESE,112,5.0,9.0,86,0.14,,,0.07,Wunderground v.1.15,2013-11-05 23:25:00,
2013-11-05 18:26:00,74.1,70.0,30.01,South,176,5.0,9.0,87,0.12,,,0.07,Wunderground v.1.15,2013-11-05 23:26:00,
2013-11-05 18:28:00,73.8,70.0,30.01,SSE,148,5.0,10.0,88,0.08,,,0.07,Wunderground v.1.15,2013-11-05 23:28:00,
2013-11-05 18:29:00,73.7,69.6,30.01,South,179,5.0,10.0,87,0.07,,,0.07,Wunderground v.1.15,2013-11-05 23:29:00,
2013-11-05 18:30:00,73.6,69.5,30.01,ESE,123,5.0,6.0,87,0.07,,,0.08,Wunderground v.1.15,2013-11-05 23:30:00,
2013-11-05 18:36:00,73.5,69.4,30.01,ESE,120,5.0,13.0,87,0.07,,,0.08,Wunderground v.1.15,2013-11-05 23:36:00,
2013-11-05 18:37:00,73.4,69.3,30.01,East,91,5.0,13.0,87,0.07,,,0.08,Wunderground v.1.15,2013-11-05 23:37:00,
2013-11-05 18:38:00,73.4,69.3,30.01,SSW,195,5.0,13.0,87,0.07,,,0.08,Wunderground v.1.15,2013-11-05 23:38:00,
2013-11-05 18:41:00,73.3,69.2,30.01,SSE,168,5.0,13.0,87,0.05,,,0.08,Wunderground v.1.15,2013-11-05 23:41:00,
2013-11-05 18:42:00,73.3,69.2,30.01,SSE,165,5.0,13.0,87,0.05,,,0.08,Wunderground v.1.15,2013-11-05 23:42:00,
2013-11-05 18:44:00,73.3,69.2,30.01,SSW,193,4.0,13.0,87,0.04,,,0.08,Wunderground v.1.15,2013-11-05 23:44:00,
2013-11-05 18:48:00,73.3,69.5,30.01,SE,131,3.0,13.0,88,0.00,,,0.08,Wunderground v.1.15,2013-11-05 23:48:00,
2013-11-05 18:49:00,73.3,69.5,30.01,ESE,118,3.0,13.0,88,0.00,,,0.08,Wunderground v.1.15,2013-11-05 23:49:00,
2013-11-05 18:50:00,73.3,69.9,30.01,SE,131,3.0,3.0,89,0.00,,,0.08,Wunderground v.1.15,2013-11-05 23:50:00,
2013-11-05 18:52:00,73.4,70.0,30.01,SE,132,2.0,13.0,89,0.00,,,0.08,Wunderground v.1.15,2013-11-05 23:52:00,
2013-11-05 18:54:00,73.5,70.1,30.01,SSW,197,2.0,13.0,89,0.00,,,0.08,Wunderground v.1.15,2013-11-05 23:54:00,
2013-11-05 18:55:00,73.5,70.1,30.01,SE,137,2.0,13.0,89,0.00,,,0.08,Wunderground v.1.15,2013-11-05 23:55:00,
2013-11-05 19:00:00,73.6,70.5,30.01,South,184,1.0,1.0,90,0.00,,,0.08,Wunderground v.1.15,2013-11-06 00:00:00,
2013-11-05 19:02:00,73.6,70.5,30.01,SE,131,1.0,2.0,90,0.00,,,0.08,Wunderground v.1.15,2013-11-06 00:02:00,
2013-11-05 19:03:00,73.7,70.6,30.01,South,188,1.0,2.0,90,0.00,,,0.08,Wunderground v.1.15,2013-11-06 00:03:00,
2013-11-05 19:06:00,73.7,70.9,30.02,SE,141,1.0,2.0,91,0.00,,,0.08,Wunderground v.1.15,2013-11-06 00:06:00,
2013-11-05 19:07:00,73.8,71.0,30.02,SW,222,1.0,2.0,91,0.00,,,0.08,Wunderground v.1.15,2013-11-06 00:07:00,
2013-11-05 19:09:00,73.9,71.1,30.02,South,169,1.0,4.0,91,0.00,,,0.08,Wunderground v.1.15,2013-11-06 00:09:00,
2013-11-05 19:11:00,73.9,71.1,30.02,South,188,1.0,2.0,91,0.00,,,0.08,Wunderground v.1.15,2013-11-06 00:11:00,
2013-11-05 19:12:00,74.0,71.2,30.02,SSE,149,2.0,2.0,91,0.00,,,0.08,Wunderground v.1.15,2013-11-06 00:12:00,
2013-11-05 19:13:00,74.0,71.2,30.02,SE,124,2.0,3.0,91,0.00,,,0.08,Wunderground v.1.15,2013-11-06 00:13:00,
2013-11-05 19:15:00,74.0,71.2,30.02,SE,146,2.0,3.0,91,0.00,,,0.08,Wunderground v.1.15,2013-11-06 00:15:00,
2013-11-05 19:18:00,74.2,71.4,30.02,South,180,2.0,3.0,91,0.00,,,0.08,Wunderground v.1.15,2013-11-06 00:18:00,
2013-11-05 19:19:00,74.2,71.4,30.01,SSE,164,2.0,3.0,91,0.00,,,0.08,Wunderground v.1.15,2013-11-06 00:19:00,
2013-11-05 19:20:00,74.2,71.4,30.02,South,188,1.0,1.0,91,0.00,,,0.08,Wunderground v.1.15,2013-11-06 00:20:00,
2013-11-05 19:22:00,74.3,71.5,30.01,South,191,1.0,2.0,91,0.00,,,0.08,Wunderground v.1.15,2013-11-06 00:22:00,
2013-11-05 19:23:00,74.3,71.5,30.01,SSE,153,1.0,3.0,91,0.00,,,0.08,Wunderground v.1.15,2013-11-06 00:23:00,
2013-11-05 19:24:00,74.3,71.5,30.01,SSW,208,1.0,3.0,91,0.00,,,0.08,Wunderground v.1.15,2013-11-06 00:24:00,
2013-11-05 19:26:00,74.4,71.6,30.01,SSE,154,1.0,3.0,91,0.00,,,0.08,Wunderground v.1.15,2013-11-06 00:26:00,
2013-11-05 19:27:00,74.5,71.7,30.02,SE,139,1.0,3.0,91,0.00,,,0.08,Wunderground v.1.15,2013-11-06 00:27:00,
2013-11-05 19:32:00,75.0,71.5,30.01,SE,145,2.0,10.0,89,0.00,,,0.08,Wunderground v.1.15,2013-11-06 00:32:00,
2013-11-05 19:33:00,75.3,71.5,30.01,ESE,122,3.0,14.0,88,0.00,,,0.08,Wunderground v.1.15,2013-11-06 00:33:00,
2013-11-05 19:34:00,75.5,71.7,30.01,SSE,159,3.0,14.0,88,0.00,,,0.08,Wunderground v.1.15,2013-11-06 00:34:00,
2013-11-05 19:35:00,75.7,71.9,30.02,South,176,3.0,14.0,88,0.00,,,0.08,Wunderground v.1.15,2013-11-06 00:35:00,
2013-11-05 19:40:00,76.3,71.8,30.02,SE,136,3.0,14.0,86,0.00,,,0.08,Wunderground v.1.15,2013-11-06 00:40:00,
2013-11-05 19:41:00,76.4,71.9,30.02,SE,145,4.0,14.0,86,0.00,,,0.08,Wunderground v.1.15,2013-11-06 00:41:00,
2013-11-05 19:42:00,76.4,71.9,30.02,SSW,193,4.0,14.0,86,0.00,,,0.08,Wunderground v.1.15,2013-11-06 00:42:00,
2013-11-05 19:44:00,76.5,71.7,30.02,SE,138,4.0,14.0,85,0.00,,,0.09,Wunderground v.1.15,2013-11-06 00:44:00,
2013-11-05 19:46:00,76.3,71.8,30.02,SE,129,4.0,14.0,86,0.36,,,0.10,Wunderground v.1.15,2013-11-06 00:46:00,
2013-11-05 19:47:00,76.2,71.7,30.02,ESE,110,4.0,14.0,86,0.34,,,0.10,Wunderground v.1.15,2013-11-06 00:47:00,
2013-11-05 19:48:00,76.2,71.7,30.02,SE,137,5.0,14.0,86,0.24,,,0.10,Wunderground v.1.15,2013-11-06 00:48:00,
2013-11-05 19:50:00,76.0,71.8,30.02,SE,134,5.0,5.0,87,0.17,,,0.11,Wunderground v.1.15,2013-11-06 00:50:00,
2013-11-05 19:53:00,75.9,71.8,30.02,SE,146,5.0,14.0,87,0.15,,,0.11,Wunderground v.1.15,2013-11-06 00:53:00,
2013-11-05 19:56:00,75.9,71.8,30.02,ESE,103,4.0,14.0,87,0.09,,,0.11,Wunderground v.1.15,2013-11-06 00:56:00,
2013-11-05 19:57:00,76.0,71.8,30.02,South,176,4.0,14.0,87,0.08,,,0.11,Wunderground v.1.15,2013-11-06 00:57:00,
2013-11-05 19:58:00,76.0,71.8,30.02,ESE,110,4.0,14.0,87,0.07,,,0.11,Wunderground v.1.15,2013-11-06 00:58:00,
2013-11-05 20:00:00,76.2,71.4,30.02,SE,126,4.0,12.0,85,0.05,,,0.11,Wunderground v.1.15,2013-11-06 01:00:00,
2013-11-05 20:01:00,76.2,71.4,30.03,SE,133,4.0,12.0,85,0.05,,,0.11,Wunderground v.1.15,2013-11-06 01:01:00,
2013-11-05 20:04:00,76.4,71.2,30.03,SE,129,5.0,12.0,84,0.04,,,0.11,Wunderground v.1.15,2013-11-06 01:04:00,
2013-11-05 20:06:00,76.3,71.1,30.02,SSE,165,5.0,12.0,84,0.00,,,0.11,Wunderground v.1.15,2013-11-06 01:06:00,
2013-11-05 20:08:00,76.2,71.0,30.02,SE,124,5.0,12.0,84,0.00,,,0.11,Wunderground v.1.15,2013-11-06 01:08:00,
2013-11-05 20:11:00,76.2,71.0,30.02,ESE,121,5.0,12.0,84,0.00,,,0.11,Wunderground v.1.15,2013-11-06 01:11:00,
2013-11-05 20:13:00,76.2,70.3,30.02,SSE,157,4.0,12.0,82,0.00,,,0.11,Wunderground v.1.15,2013-11-06 01:13:00,
2013-11-05 20:16:00,76.2,70.3,30.03,SE,132,4.0,12.0,82,0.00,,,0.11,Wunderground v.1.15,2013-11-06 01:16:00,
2013-11-05 20:17:00,76.3,70.4,30.02,SSE,163,4.0,12.0,82,0.00,,,0.11,Wunderground v.1.15,2013-11-06 01:17:00,
2013-11-05 20:20:00,76.3,70.0,30.03,South,169,4.0,4.0,81,0.00,,,0.11,Wunderground v.1.15,2013-11-06 01:20:00,
2013-11-05 20:21:00,76.3,70.4,30.03,South,177,4.0,4.0,82,0.00,,,0.11,Wunderground v.1.15,2013-11-06 01:21:00,
2013-11-05 20:22:00,76.3,70.4,30.03,SSW,207,4.0,4.0,82,0.00,,,0.11,Wunderground v.1.15,2013-11-06 01:22:00,
2013-11-05 20:24:00,76.3,70.4,30.03,ESE,120,4.0,7.0,82,0.00,,,0.11,Wunderground v.1.15,2013-11-06 01:24:00,
2013-11-05 20:26:00,76.4,70.1,30.03,SE,135,3.0,7.0,81,0.00,,,0.11,Wunderground v.1.15,2013-11-06 01:26:00,
2013-11-05 20:28:00,76.6,70.3,30.03,ESE,117,4.0,8.0,81,0.00,,,0.11,Wunderground v.1.15,2013-11-06 01:28:00,
2013-11-05 20:30:00,76.8,70.2,30.03,SE,139,5.0,6.0,80,0.00,,,0.11,Wunderground v.1.15,2013-11-06 01:30:00,
2013-11-05 20:31:00,76.9,70.3,30.03,SE,131,5.0,11.0,80,0.00,,,0.11,Wunderground v.1.15,2013-11-06 01:31:00,
2013-11-05 20:32:00,77.0,70.4,30.02,SSE,155,5.0,11.0,80,0.00,,,0.11,Wunderground v.1.15,2013-11-06 01:32:00,
2013-11-05 20:35:00,77.1,70.5,30.03,South,185,6.0,11.0,80,0.00,,,0.11,Wunderground v.1.15,2013-11-06 01:35:00,
2013-11-05 20:36:00,77.1,70.8,30.03,SE,143,6.0,11.0,81,0.00,,,0.11,Wunderground v.1.15,2013-11-06 01:36:00,
2013-11-05 20:37:00,77.2,70.9,30.02,SE,138,6.0,11.0,81,0.00,,,0.11,Wunderground v.1.15,2013-11-06 01:37:00,
2013-11-05 20:39:00,77.2,70.9,30.03,ENE,58,5.0,11.0,81,0.00,,,0.11,Wunderground v.1.15,2013-11-06 01:39:00,
2013-11-05 20:40:00,77.2,70.9,30.03,SE,127,4.0,4.0,81,0.00,,,0.11,Wunderground v.1.15,2013-11-06 01:40:00,
2013-11-05 20:42:00,77.2,70.9,30.03,SSE,149,4.0,11.0,81,0.00,,,0.11,Wunderground v.1.15,2013-11-06 01:42:00,
2013-11-05 20:44:00,77.3,71.0,30.03,ESE,121,4.0,11.0,81,0.00,,,0.11,Wunderground v.1.15,2013-11-06 01:44:00,
2013-11-05 20:47:00,77.4,71.1,30.03,ESE,112,4.0,12.0,81,0.00,,,0.11,Wunderground v.1.15,2013-11-06 01:47:00,
2013-11-05 20:49:00,77.4,71.1,30.03,NNE,27,5.0,12.0,81,0.00,,,0.11,Wunderground v.1.15,2013-11-06 01:49:00,
2013-11-05 20:50:00,77.3,71.0,30.03,SE,144,5.0,5.0,81,0.00,,,0.11,Wunderground v.1.15,2013-11-06 01:50:00,
2013-11-05 20:52:00,77.3,71.0,30.03,SE,139,5.0,11.0,81,0.00,,,0.11,Wunderground v.1.15,2013-11-06 01:52:00,
2013-11-05 20:54:00,77.4,71.1,30.03,SE,143,5.0,11.0,81,0.00,,,0.11,Wunderground v.1.15,2013-11-06 01:54:00,
2013-11-05 20:57:00,77.6,70.9,30.03,SE,146,5.0,11.0,80,0.00,,,0.11,Wunderground v.1.15,2013-11-06 01:57:00,
2013-11-05 20:58:00,77.7,71.0,30.03,ESE,108,5.0,11.0,80,0.00,,,0.11,Wunderground v.1.15,2013-11-06 01:58:00,
2013-11-05 20:59:00,77.7,71.0,30.03,SE,139,5.0,11.0,80,0.00,,,0.11,Wunderground v.1.15,2013-11-06 01:59:00,
2013-11-05 21:02:00,77.7,71.0,30.03,ENE,72,5.0,5.0,80,0.00,,,0.11,Wunderground v.1.15,2013-11-06 02:02:00,
2013-11-05 21:04:00,77.7,71.0,30.03,ESE,110,5.0,8.0,80,0.00,,,0.11,Wunderground v.1.15,2013-11-06 02:04:00,
2013-11-05 21:07:00,77.8,70.8,30.04,East,101,5.0,11.0,79,0.00,,,0.11,Wunderground v.1.15,2013-11-06 02:07:00,
2013-11-05 21:08:00,77.9,71.2,30.04,ENE,70,5.0,11.0,80,0.00,,,0.11,Wunderground v.1.15,2013-11-06 02:08:00,
2013-11-05 21:10:00,77.9,70.9,30.03,ESE,110,5.0,5.0,79,0.00,,,0.11,Wunderground v.1.15,2013-11-06 02:10:00,
2013-11-05 21:11:00,77.9,70.9,30.03,SSE,148,5.0,7.0,79,0.00,,,0.11,Wunderground v.1.15,2013-11-06 02:11:00,
2013-11-05 21:12:00,77.9,70.9,30.04,SE,137,6.0,11.0,79,0.00,,,0.11,Wunderground v.1.15,2013-11-06 02:12:00,
2013-11-05 21:17:00,77.9,70.9,30.04,SE,129,6.0,12.0,79,0.00,,,0.11,Wunderground v.1.15,2013-11-06 02:17:00,
2013-11-05 21:18:00,77.9,70.9,30.04,ENE,65,6.0,12.0,79,0.00,,,0.11,Wunderground v.1.15,2013-11-06 02:18:00,
2013-11-05 21:19:00,77.9,70.9,30.04,SE,129,6.0,12.0,79,0.00,,,0.11,Wunderground v.1.15,2013-11-06 02:19:00,
2013-11-05 21:21:00,77.9,70.9,30.04,SE,140,6.0,9.0,79,0.00,,,0.11,Wunderground v.1.15,2013-11-06 02:21:00,
2013-11-05 21:24:00,77.9,70.9,30.04,SE,124,6.0,9.0,79,0.00,,,0.11,Wunderground v.1.15,2013-11-06 02:24:00,
2013-11-05 21:27:00,77.9,70.9,30.04,SE,125,6.0,9.0,79,0.00,,,0.11,Wunderground v.1.15,2013-11-06 02:27:00,
2013-11-05 21:28:00,77.9,70.9,30.04,ESE,119,6.0,12.0,79,0.00,,,0.11,Wunderground v.1.15,2013-11-06 02:28:00,
2013-11-05 21:30:00,77.9,70.9,30.04,SE,140,6.0,6.0,79,0.00,,,0.11,Wunderground v.1.15,2013-11-06 02:30:00,
2013-11-05 21:33:00,77.8,70.8,30.04,South,183,5.0,14.0,79,0.00,,,0.11,Wunderground v.1.15,2013-11-06 02:33:00,
2013-11-05 21:35:00,77.9,70.9,30.04,NNE,33,5.0,14.0,79,0.00,,,0.11,Wunderground v.1.15,2013-11-06 02:35:00,
2013-11-05 21:36:00,77.9,70.9,30.04,WSW,244,5.0,14.0,79,0.00,,,0.11,Wunderground v.1.15,2013-11-06 02:36:00,
2013-11-05 21:37:00,77.9,70.9,30.04,SE,134,5.0,14.0,79,0.00,,,0.11,Wunderground v.1.15,2013-11-06 02:37:00,
2013-11-05 21:39:00,77.9,70.9,30.04,ESE,117,5.0,14.0,79,0.00,,,0.11,Wunderground v.1.15,2013-11-06 02:39:00,
2013-11-05 21:41:00,77.8,70.8,30.04,ESE,106,5.0,14.0,79,0.00,,,0.11,Wunderground v.1.15,2013-11-06 02:41:00,
2013-11-05 21:42:00,77.8,70.8,30.04,NNW,346,5.0,14.0,79,0.00,,,0.11,Wunderground v.1.15,2013-11-06 02:42:00,
2013-11-05 21:45:00,77.8,70.8,30.04,SE,125,5.0,14.0,79,0.00,,,0.11,Wunderground v.1.15,2013-11-06 02:45:00,
2013-11-05 21:47:00,77.8,70.4,30.04,SE,125,5.0,14.0,78,0.00,,,0.11,Wunderground v.1.15,2013-11-06 02:47:00,
2013-11-05 21:49:00,77.8,70.4,30.04,SE,144,5.0,14.0,78,0.00,,,0.11,Wunderground v.1.15,2013-11-06 02:49:00,
2013-11-05 21:50:00,77.8,70.4,30.04,ESE,112,6.0,14.0,78,0.00,,,0.11,Wunderground v.1.15,2013-11-06 02:50:00,
2013-11-05 21:53:00,77.8,70.4,30.04,SE,129,6.0,14.0,78,0.00,,,0.11,Wunderground v.1.15,2013-11-06 02:53:00,
2013-11-05 21:54:00,77.8,70.4,30.04,SE,131,6.0,14.0,78,0.00,,,0.11,Wunderground v.1.15,2013-11-06 02:54:00,
2013-11-05 21:55:00,77.8,70.4,30.04,ESE,122,5.0,14.0,78,0.00,,,0.11,Wunderground v.1.15,2013-11-06 02:55:00,
2013-11-05 21:59:00,77.8,70.8,30.04,SE,130,5.0,14.0,79,0.00,,,0.11,Wunderground v.1.15,2013-11-06 02:59:00,
2013-11-05 22:00:00,77.8,70.8,30.04,SE,142,5.0,5.0,79,0.00,,,0.11,Wunderground v.1.15,2013-11-06 03:00:00,
2013-11-05 22:03:00,77.8,70.8,30.04,SE,133,5.0,5.0,79,0.00,,,0.11,Wunderground v.1.15,2013-11-06 03:03:00,
2013-11-05 22:04:00,77.7,70.7,30.04,SE,141,5.0,7.0,79,0.00,,,0.11,Wunderground v.1.15,2013-11-06 03:04:00,
2013-11-05 22:08:00,77.7,70.3,30.04,ESE,118,5.0,11.0,78,0.00,,,0.11,Wunderground v.1.15,2013-11-06 03:08:00,
2013-11-05 22:09:00,77.8,70.4,30.04,SE,132,5.0,11.0,78,0.00,,,0.11,Wunderground v.1.15,2013-11-06 03:09:00,
2013-11-05 22:13:00,77.8,70.4,30.04,ESE,117,5.0,10.0,78,0.00,,,0.11,Wunderground v.1.15,2013-11-06 03:13:00,
2013-11-05 22:14:00,77.8,70.4,30.03,ESE,120,6.0,10.0,78,0.00,,,0.11,Wunderground v.1.15,2013-11-06 03:14:00,
2013-11-05 22:15:00,77.8,70.4,30.04,SSE,153,6.0,11.0,78,0.00,,,0.11,Wunderground v.1.15,2013-11-06 03:15:00,
2013-11-05 22:16:00,77.8,70.4,30.04,SE,134,6.0,11.0,78,0.00,,,0.11,Wunderground v.1.15,2013-11-06 03:16:00,
2013-11-05 22:18:00,77.9,70.5,30.04,SE,131,6.0,11.0,78,0.00,,,0.11,Wunderground v.1.15,2013-11-06 03:18:00,
2013-11-05 22:19:00,77.9,70.5,30.04,SE,141,6.0,11.0,78,0.00,,,0.11,Wunderground v.1.15,2013-11-06 03:19:00,
2013-11-05 22:20:00,77.9,70.5,30.03,SSE,148,5.0,5.0,78,0.00,,,0.11,Wunderground v.1.15,2013-11-06 03:20:00,
2013-11-05 22:21:00,77.9,70.5,30.03,SE,130,5.0,7.0,78,0.00,,,0.11,Wunderground v.1.15,2013-11-06 03:21:00,
2013-11-05 22:25:00,77.8,70.4,30.04,South,169,5.0,7.0,78,0.00,,,0.11,Wunderground v.1.15,2013-11-06 03:25:00,
2013-11-05 22:26:00,77.8,70.4,30.04,SSE,147,5.0,10.0,78,0.00,,,0.11,Wunderground v.1.15,2013-11-06 03:26:00,
2013-11-05 22:27:00,77.8,70.4,30.04,SE,144,5.0,10.0,78,0.00,,,0.11,Wunderground v.1.15,2013-11-06 03:27:00,
2013-11-05 22:29:00,77.8,70.4,30.03,NE,41,5.0,11.0,78,0.00,,,0.11,Wunderground v.1.15,2013-11-06 03:29:00,
2013-11-05 22:32:00,77.8,70.4,30.03,ESE,122,5.0,15.0,78,0.00,,,0.11,Wunderground v.1.15,2013-11-06 03:32:00,
2013-11-05 22:33:00,77.8,70.4,30.03,SE,142,5.0,15.0,78,0.00,,,0.11,Wunderground v.1.15,2013-11-06 03:33:00,
2013-11-05 22:34:00,77.8,70.4,30.04,SE,146,5.0,15.0,78,0.00,,,0.11,Wunderground v.1.15,2013-11-06 03:34:00,
2013-11-05 22:36:00,77.9,70.5,30.04,SE,144,6.0,15.0,78,0.00,,,0.11,Wunderground v.1.15,2013-11-06 03:36:00,
2013-11-05 22:39:00,77.9,70.5,30.04,SE,130,5.0,15.0,78,0.00,,,0.11,Wunderground v.1.15,2013-11-06 03:39:00,
2013-11-05 22:41:00,77.8,70.4,30.04,ESE,108,4.0,8.0,78,0.00,,,0.11,Wunderground v.1.15,2013-11-06 03:41:00,
2013-11-05 22:45:00,77.9,70.5,30.04,SE,146,5.0,15.0,78,0.00,,,0.11,Wunderground v.1.15,2013-11-06 03:45:00,
2013-11-05 22:47:00,77.9,70.5,30.04,SE,125,5.0,15.0,78,0.00,,,0.11,Wunderground v.1.15,2013-11-06 03:47:00,
2013-11-05 22:50:00,77.9,70.5,30.04,SSE,158,6.0,6.0,78,0.00,,,0.11,Wunderground v.1.15,2013-11-06 03:50:00,
2013-11-05 22:52:00,77.9,70.5,30.04,SE,131,6.0,15.0,78,0.00,,,0.11,Wunderground v.1.15,2013-11-06 03:52:00,
2013-11-05 22:53:00,77.9,70.1,30.04,SW,221,6.0,15.0,77,0.00,,,0.11,Wunderground v.1.15,2013-11-06 03:53:00,
2013-11-05 22:56:00,77.9,70.1,30.03,SE,125,5.0,15.0,77,0.00,,,0.11,Wunderground v.1.15,2013-11-06 03:56:00,
2013-11-05 22:58:00,77.9,70.1,30.03,SE,142,5.0,15.0,77,0.00,,,0.11,Wunderground v.1.15,2013-11-06 03:58:00,
2013-11-05 23:00:00,77.9,70.1,30.04,SSE,158,5.0,5.0,77,0.00,,,0.11,Wunderground v.1.15,2013-11-06 04:00:00,
2013-11-05 23:02:00,77.9,70.1,30.03,SSW,198,5.0,5.0,77,0.00,,,0.11,Wunderground v.1.15,2013-11-06 04:02:00,
2013-11-05 23:03:00,77.9,70.1,30.03,South,178,5.0,5.0,77,0.00,,,0.11,Wunderground v.1.15,2013-11-06 04:03:00,
2013-11-05 23:04:00,77.9,70.1,30.03,SE,127,5.0,10.0,77,0.00,,,0.11,Wunderground v.1.15,2013-11-06 04:04:00,
2013-11-05 23:07:00,77.9,70.1,30.03,ENE,73,5.0,11.0,77,0.00,,,0.11,Wunderground v.1.15,2013-11-06 04:07:00,
2013-11-05 23:08:00,77.9,70.1,30.03,SE,141,5.0,11.0,77,0.00,,,0.11,Wunderground v.1.15,2013-11-06 04:08:00,
2013-11-05 23:09:00,77.9,70.1,30.03,ESE,123,5.0,11.0,77,0.00,,,0.11,Wunderground v.1.15,2013-11-06 04:09:00,
2013-11-05 23:10:00,77.9,70.1,30.03,ESE,123,6.0,6.0,77,0.00,,,0.11,Wunderground v.1.15,2013-11-06 04:10:00,
2013-11-05 23:12:00,77.9,70.1,30.03,SSE,166,6.0,6.0,77,0.00,,,0.11,Wunderground v.1.15,2013-11-06 04:12:00,
2013-11-05 23:15:00,77.9,70.1,30.03,SSE,158,6.0,8.0,77,0.00,,,0.11,Wunderground v.1.15,2013-11-06 04:15:00,
2013-11-05 23:16:00,77.9,70.1,30.03,SSE,148,6.0,8.0,77,0.00,,,0.11,Wunderground v.1.15,2013-11-06 04:16:00,
2013-11-05 23:18:00,77.9,70.1,30.03,SE,134,6.0,8.0,77,0.00,,,0.11,Wunderground v.1.15,2013-11-06 04:18:00,
2013-11-05 23:20:00,77.9,70.1,30.03,SSE,162,6.0,6.0,77,0.00,,,0.11,Wunderground v.1.15,2013-11-06 04:20:00,
2013-11-05 23:22:00,77.9,70.1,30.03,ESE,118,5.0,11.0,77,0.00,,,0.11,Wunderground v.1.15,2013-11-06 04:22:00,
2013-11-05 23:23:00,77.9,70.1,30.03,SE,131,5.0,11.0,77,0.00,,,0.11,Wunderground v.1.15,2013-11-06 04:23:00,
2013-11-05 23:24:00,77.9,70.1,30.03,WSW,243,5.0,11.0,77,0.00,,,0.11,Wunderground v.1.15,2013-11-06 04:24:00,
2013-11-05 23:25:00,77.9,70.1,30.03,South,170,5.0,11.0,77,0.00,,,0.11,Wunderground v.1.15,2013-11-06 04:25:00,
2013-11-05 23:29:00,77.8,70.0,30.03,East,97,5.0,11.0,77,0.00,,,0.11,Wunderground v.1.15,2013-11-06 04:29:00,
2013-11-05 23:30:00,77.9,70.1,30.03,SE,141,5.0,6.0,77,0.00,,,0.11,Wunderground v.1.15,2013-11-06 04:30:00,
2013-11-05 23:31:00,77.9,70.1,30.03,SSE,161,5.0,14.0,77,0.00,,,0.11,Wunderground v.1.15,2013-11-06 04:31:00,
2013-11-05 23:33:00,77.9,70.1,30.03,SE,129,5.0,14.0,77,0.00,,,0.11,Wunderground v.1.15,2013-11-06 04:33:00,
2013-11-05 23:34:00,77.9,70.1,30.03,ESE,122,5.0,14.0,77,0.00,,,0.11,Wunderground v.1.15,2013-11-06 04:34:00,
2013-11-05 23:37:00,77.9,70.1,30.02,South,179,5.0,14.0,77,0.00,,,0.11,Wunderground v.1.15,2013-11-06 04:37:00,
2013-11-05 23:39:00,77.9,70.1,30.02,SE,136,5.0,14.0,77,0.00,,,0.11,Wunderground v.1.15,2013-11-06 04:39:00,
2013-11-05 23:41:00,77.8,70.0,30.02,South,174,4.0,14.0,77,0.00,,,0.11,Wunderground v.1.15,2013-11-06 04:41:00,
2013-11-05 23:44:00,77.9,70.1,30.02,ENE,72,5.0,14.0,77,0.00,,,0.11,Wunderground v.1.15,2013-11-06 04:44:00,
2013-11-05 23:45:00,77.9,70.1,30.02,SE,138,5.0,14.0,77,0.00,,,0.11,Wunderground v.1.15,2013-11-06 04:45:00,
2013-11-05 23:46:00,77.9,70.1,30.02,SE,144,5.0,14.0,77,0.00,,,0.11,Wunderground v.1.15,2013-11-06 04:46:00,
2013-11-05 23:48:00,77.9,70.1,30.02,SE,127,5.0,14.0,77,0.00,,,0.11,Wunderground v.1.15,2013-11-06 04:48:00,
2013-11-05 23:49:00,77.9,70.1,30.02,SSE,167,6.0,14.0,77,0.00,,,0.11,Wunderground v.1.15,2013-11-06 04:49:00,
2013-11-05 23:51:00,77.9,70.1,30.02,SE,128,6.0,14.0,77,0.00,,,0.11,Wunderground v.1.15,2013-11-06 04:51:00,
2013-11-05 23:54:00,77.9,70.1,30.02,ESE,111,5.0,14.0,77,0.00,,,0.11,Wunderground v.1.15,2013-11-06 04:54:00,
2013-11-05 23:55:00,77.9,70.1,30.02,SE,141,5.0,14.0,77,0.00,,,0.11,Wunderground v.1.15,2013-11-06 04:55:00,
2013-11-05 23:57:00,77.8,70.0,30.02,SE,139,5.0,14.0,77,0.00,,,0.11,Wunderground v.1.15,2013-11-06 04:57:00,